Time,TemperatureF,DewpointF,PressureIn,WindDirection,WindDirectionDegrees,WindSpeedMPH,WindSpeedGustMPH,Humidity,HourlyPrecipIn,Conditions,Clouds,dailyrainin,SoftwareType,DateUTC
2013-04-18 00:00:00,56.4,56.1,29.68,NNW,335,5.0,5.0,99,0.42,,,0.01,Wunderground v.1.15,2013-04-18 05:00:00,
2013-04-18 00:02:00,56.5,56.2,29.68,East,96,4.0,5.0,99,0.31,,,0.02,Wunderground v.1.15,2013-04-18 05:02:00,
2013-04-18 00:03:00,56.5,56.2,29.69,ENE,63,4.0,5.0,99,0.31,,,0.02,Wunderground v.1.15,2013-04-18 05:03:00,
2013-04-18 00:04:00,56.6,56.3,29.69,NE,53,3.0,5.0,99,0.28,,,0.03,Wunderground v.1.15,2013-04-18 05:04:00,
2013-04-18 00:07:00,56.6,56.3,29.70,NW,309,2.0,5.0,99,0.37,,,0.05,Wunderground v.1.15,2013-04-18 05:07:00,
2013-04-18 00:08:00,56.6,56.3,29.71,NE,46,2.0,5.0,99,0.49,,,0.06,Wunderground v.1.15,2013-04-18 05:08:00,
2013-04-18 00:10:00,56.6,56.3,29.72,ENE,72,1.0,1.0,99,2.29,,,0.11,Wunderground v.1.15,2013-04-18 05:10:00,
2013-04-18 00:11:00,56.6,56.3,29.72,NE,53,1.0,2.0,99,3.31,,,0.14,Wunderground v.1.15,2013-04-18 05:11:00,
2013-04-18 00:13:00,56.7,56.4,29.70,ENE,68,1.0,6.0,99,5.70,,,0.27,Wunderground v.1.15,2013-04-18 05:13:00,
2013-04-18 00:15:00,56.6,56.3,29.70,ESE,117,1.0,6.0,99,1.69,,,0.34,Wunderground v.1.15,2013-04-18 05:15:00,
2013-04-18 00:16:00,56.6,56.3,29.70,ESE,103,2.0,8.0,99,1.31,,,0.36,Wunderground v.1.15,2013-04-18 05:16:00,
2013-04-18 00:19:00,56.5,56.2,29.69,SE,130,3.0,8.0,99,0.44,,,0.40,Wunderground v.1.15,2013-04-18 05:19:00,
2013-04-18 00:20:00,56.5,56.2,29.70,ENE,68,4.0,11.0,99,0.44,,,0.40,Wunderground v.1.15,2013-04-18 05:20:00,
2013-04-18 00:21:00,56.5,56.2,29.70,ESE,109,4.0,11.0,99,0.32,,,0.41,Wunderground v.1.15,2013-04-18 05:21:00,
2013-04-18 00:22:00,56.4,56.1,29.70,NE,49,5.0,11.0,99,0.32,,,0.41,Wunderground v.1.15,2013-04-18 05:22:00,
2013-04-18 00:26:00,56.4,56.1,29.69,ENE,58,6.0,11.0,99,0.17,,,0.42,Wunderground v.1.15,2013-04-18 05:26:00,
2013-04-18 00:27:00,56.4,56.1,29.69,NE,35,6.0,11.0,99,0.13,,,0.42,Wunderground v.1.15,2013-04-18 05:27:00,
2013-04-18 00:28:00,56.4,56.1,29.69,NE,44,5.0,11.0,99,0.12,,,0.43,Wunderground v.1.15,2013-04-18 05:28:00,
2013-04-18 00:30:00,56.3,56.0,29.68,East,96,5.0,5.0,99,0.31,,,0.44,Wunderground v.1.15,2013-04-18 05:30:00,
2013-04-18 00:32:00,56.3,56.0,29.69,NE,56,5.0,5.0,99,0.49,,,0.45,Wunderground v.1.15,2013-04-18 05:32:00,
2013-04-18 00:34:00,56.4,56.1,29.69,East,93,4.0,5.0,99,0.37,,,0.46,Wunderground v.1.15,2013-04-18 05:34:00,
2013-04-18 00:36:00,56.4,56.1,29.68,NE,53,3.0,8.0,99,0.16,,,0.46,Wunderground v.1.15,2013-04-18 05:36:00,
2013-04-18 00:37:00,56.4,56.1,29.67,NE,47,3.0,8.0,99,0.15,,,0.47,Wunderground v.1.15,2013-04-18 05:37:00,
2013-04-18 00:39:00,56.4,56.1,29.67,ENE,72,3.0,8.0,99,0.15,,,0.47,Wunderground v.1.15,2013-04-18 05:39:00,
2013-04-18 00:40:00,56.4,56.1,29.67,NNE,31,3.0,3.0,99,0.15,,,0.47,Wunderground v.1.15,2013-04-18 05:40:00,
2013-04-18 00:42:00,56.4,56.1,29.67,East,95,3.0,4.0,99,0.11,,,0.47,Wunderground v.1.15,2013-04-18 05:42:00,
2013-04-18 00:44:00,56.4,56.1,29.67,East,80,3.0,4.0,99,0.08,,,0.47,Wunderground v.1.15,2013-04-18 05:44:00,
2013-04-18 00:45:00,56.4,56.1,29.68,ENE,68,3.0,10.0,99,0.08,,,0.48,Wunderground v.1.15,2013-04-18 05:45:00,
2013-04-18 00:47:00,56.5,56.2,29.68,East,95,3.0,10.0,99,0.08,,,0.48,Wunderground v.1.15,2013-04-18 05:47:00,
2013-04-18 00:48:00,56.5,56.2,29.68,NNW,345,3.0,10.0,99,0.08,,,0.48,Wunderground v.1.15,2013-04-18 05:48:00,
2013-04-18 00:49:00,56.5,56.2,29.68,NNE,12,3.0,10.0,99,0.14,,,0.49,Wunderground v.1.15,2013-04-18 05:49:00,
2013-04-18 00:53:00,56.5,56.2,29.65,NE,56,3.0,4.0,99,0.78,,,0.53,Wunderground v.1.15,2013-04-18 05:53:00,
2013-04-18 00:54:00,56.4,56.1,29.65,East,80,3.0,4.0,99,0.32,,,0.54,Wunderground v.1.15,2013-04-18 05:54:00,
2013-04-18 00:56:00,56.4,56.1,29.65,NNE,12,3.0,4.0,99,0.40,,,0.55,Wunderground v.1.15,2013-04-18 05:56:00,
2013-04-18 00:58:00,56.4,56.1,29.66,ENE,76,3.0,4.0,99,0.19,,,0.55,Wunderground v.1.15,2013-04-18 05:58:00,
2013-04-18 01:00:00,56.5,56.2,29.65,East,85,3.0,3.0,99,0.16,,,0.56,Wunderground v.1.15,2013-04-18 06:00:00,
2013-04-18 01:01:00,56.5,56.2,29.65,ESE,103,4.0,4.0,99,0.16,,,0.56,Wunderground v.1.15,2013-04-18 06:01:00,
2013-04-18 01:02:00,56.5,56.2,29.65,ENE,75,3.0,4.0,99,0.16,,,0.56,Wunderground v.1.15,2013-04-18 06:02:00,
2013-04-18 01:06:00,56.5,56.2,29.64,ENE,71,3.0,7.0,99,0.09,,,0.56,Wunderground v.1.15,2013-04-18 06:06:00,
2013-04-18 01:08:00,56.4,56.1,29.63,East,88,4.0,7.0,99,0.08,,,0.57,Wunderground v.1.15,2013-04-18 06:08:00,
2013-04-18 01:09:00,56.4,56.1,29.63,NE,49,4.0,7.0,99,0.08,,,0.57,Wunderground v.1.15,2013-04-18 06:09:00,
2013-04-18 01:11:00,56.5,56.2,29.64,ESE,105,5.0,6.0,99,0.08,,,0.57,Wunderground v.1.15,2013-04-18 06:11:00,
2013-04-18 01:13:00,56.6,56.3,29.64,ENE,67,6.0,6.0,99,0.08,,,0.57,Wunderground v.1.15,2013-04-18 06:13:00,
2013-04-18 01:16:00,56.6,56.3,29.64,NE,56,6.0,9.0,99,0.07,,,0.57,Wunderground v.1.15,2013-04-18 06:16:00,
2013-04-18 01:19:00,56.6,56.3,29.64,ENE,76,6.0,10.0,99,0.05,,,0.58,Wunderground v.1.15,2013-04-18 06:19:00,
2013-04-18 01:21:00,56.6,56.3,29.65,ENE,63,5.0,6.0,99,0.67,,,0.60,Wunderground v.1.15,2013-04-18 06:21:00,
2013-04-18 01:22:00,56.6,56.3,29.65,NNE,18,5.0,6.0,99,0.60,,,0.61,Wunderground v.1.15,2013-04-18 06:22:00,
2013-04-18 01:26:00,56.6,56.3,29.66,West,276,3.0,6.0,99,0.12,,,0.61,Wunderground v.1.15,2013-04-18 06:26:00,
2013-04-18 01:27:00,56.6,56.3,29.67,West,275,3.0,6.0,99,0.10,,,0.61,Wunderground v.1.15,2013-04-18 06:27:00,
2013-04-18 01:28:00,56.6,56.3,29.67,West,262,3.0,6.0,99,0.08,,,0.61,Wunderground v.1.15,2013-04-18 06:28:00,
2013-04-18 01:32:00,56.6,56.3,29.67,North,9,1.0,2.0,99,0.07,,,0.62,Wunderground v.1.15,2013-04-18 06:32:00,
2013-04-18 01:33:00,56.6,56.3,29.67,North,9,1.0,2.0,99,0.07,,,0.62,Wunderground v.1.15,2013-04-18 06:33:00,
2013-04-18 01:35:00,56.6,56.3,29.68,NE,41,1.0,2.0,99,0.07,,,0.62,Wunderground v.1.15,2013-04-18 06:35:00,
2013-04-18 01:37:00,56.5,56.2,29.67,ENE,71,0.0,2.0,99,0.07,,,0.62,Wunderground v.1.15,2013-04-18 06:37:00,
2013-04-18 01:40:00,56.6,56.3,29.67,ENE,65,0.0,0.0,99,0.06,,,0.62,Wunderground v.1.15,2013-04-18 06:40:00,
2013-04-18 01:41:00,56.5,56.2,29.65,NE,47,0.0,0.0,99,0.05,,,0.62,Wunderground v.1.15,2013-04-18 06:41:00,
2013-04-18 01:42:00,56.5,56.2,29.65,NE,46,0.0,0.0,99,0.05,,,0.63,Wunderground v.1.15,2013-04-18 06:42:00,
2013-04-18 01:43:00,56.4,56.1,29.65,NW,314,0.0,0.0,99,0.05,,,0.63,Wunderground v.1.15,2013-04-18 06:43:00,
2013-04-18 01:47:00,56.4,56.1,29.65,North,354,0.0,2.0,99,0.05,,,0.63,Wunderground v.1.15,2013-04-18 06:47:00,
2013-04-18 01:48:00,56.4,56.1,29.65,North,1,0.0,2.0,99,0.10,,,0.63,Wunderground v.1.15,2013-04-18 06:48:00,
2013-04-18 01:50:00,56.3,56.0,29.65,NNW,335,1.0,1.0,99,0.10,,,0.64,Wunderground v.1.15,2013-04-18 06:50:00,
2013-04-18 01:51:00,56.3,56.0,29.65,NE,40,1.0,1.0,99,0.10,,,0.64,Wunderground v.1.15,2013-04-18 06:51:00,
2013-04-18 01:55:00,56.2,55.9,29.64,NE,37,1.0,1.0,99,0.08,,,0.64,Wunderground v.1.15,2013-04-18 06:55:00,
2013-04-18 01:56:00,56.2,55.9,29.63,North,6,0.0,1.0,99,0.07,,,0.64,Wunderground v.1.15,2013-04-18 06:56:00,
2013-04-18 01:57:00,56.2,55.9,29.63,NNE,31,0.0,1.0,99,0.06,,,0.64,Wunderground v.1.15,2013-04-18 06:57:00,
2013-04-18 01:58:00,56.2,55.9,29.63,NNE,31,0.0,1.0,99,0.06,,,0.64,Wunderground v.1.15,2013-04-18 06:58:00,
2013-04-18 02:01:00,56.2,55.9,29.62,NE,46,0.0,4.0,99,0.05,,,0.65,Wunderground v.1.15,2013-04-18 07:01:00,
2013-04-18 02:03:00,56.3,56.0,29.63,NW,316,1.0,4.0,99,0.05,,,0.65,Wunderground v.1.15,2013-04-18 07:03:00,
2013-04-18 02:04:00,56.3,56.0,29.64,NNW,330,1.0,4.0,99,0.05,,,0.65,Wunderground v.1.15,2013-04-18 07:04:00,
2013-04-18 02:08:00,56.2,55.9,29.67,WNW,293,3.0,5.0,99,0.12,,,0.66,Wunderground v.1.15,2013-04-18 07:08:00,
2013-04-18 02:09:00,56.0,55.7,29.67,NNE,12,3.0,3.0,99,1.64,,,0.68,Wunderground v.1.15,2013-04-18 07:09:00,
2013-04-18 02:12:00,55.8,55.5,29.64,NNE,30,4.0,4.0,99,0.32,,,0.69,Wunderground v.1.15,2013-04-18 07:12:00,
2013-04-18 02:13:00,55.9,55.6,29.63,NNE,26,4.0,5.0,99,0.28,,,0.70,Wunderground v.1.15,2013-04-18 07:13:00,
2013-04-18 02:14:00,55.9,55.6,29.64,NNW,340,4.0,5.0,99,0.24,,,0.70,Wunderground v.1.15,2013-04-18 07:14:00,
2013-04-18 02:18:00,56.2,55.9,29.65,West,277,4.0,5.0,99,0.11,,,0.70,Wunderground v.1.15,2013-04-18 07:18:00,
2013-04-18 02:19:00,56.3,56.0,29.66,NNW,330,3.0,5.0,99,0.09,,,0.70,Wunderground v.1.15,2013-04-18 07:19:00,
2013-04-18 02:20:00,56.4,56.1,29.67,NNW,336,3.0,3.0,99,0.09,,,0.71,Wunderground v.1.15,2013-04-18 07:20:00,
2013-04-18 02:24:00,56.0,55.7,29.67,NW,321,3.0,3.0,99,0.55,,,0.80,Wunderground v.1.15,2013-04-18 07:24:00,
2013-04-18 02:25:00,55.8,55.5,29.68,WNW,302,3.0,3.0,99,0.78,,,0.82,Wunderground v.1.15,2013-04-18 07:25:00,
2013-04-18 02:27:00,55.2,54.9,29.68,NNW,341,3.0,4.0,99,0.71,,,0.84,Wunderground v.1.15,2013-04-18 07:27:00,
2013-04-18 02:30:00,54.4,54.1,29.67,NNW,342,3.0,4.0,99,0.28,,,0.85,Wunderground v.1.15,2013-04-18 07:30:00,
2013-04-18 02:33:00,53.9,53.6,29.66,NNW,338,3.0,6.0,99,0.40,,,0.87,Wunderground v.1.15,2013-04-18 07:33:00,
2013-04-18 02:34:00,53.7,53.4,29.66,NNW,331,3.0,6.0,99,0.38,,,0.88,Wunderground v.1.15,2013-04-18 07:34:00,
2013-04-18 02:36:00,53.5,53.2,29.67,North,359,4.0,6.0,99,0.26,,,0.89,Wunderground v.1.15,2013-04-18 07:36:00,
2013-04-18 02:37:00,53.4,53.1,29.67,NNW,347,4.0,6.0,99,0.26,,,0.89,Wunderground v.1.15,2013-04-18 07:37:00,
2013-04-18 02:38:00,53.3,53.0,29.68,NNW,338,4.0,6.0,99,0.24,,,0.89,Wunderground v.1.15,2013-04-18 07:38:00,
2013-04-18 02:40:00,53.3,53.0,29.68,NNW,345,4.0,5.0,99,0.15,,,0.90,Wunderground v.1.15,2013-04-18 07:40:00,
2013-04-18 02:41:00,53.2,52.9,29.69,NNW,331,3.0,6.0,99,0.15,,,0.90,Wunderground v.1.15,2013-04-18 07:41:00,
2013-04-18 02:43:00,53.0,52.7,29.68,NNW,335,4.0,7.0,99,1.16,,,0.92,Wunderground v.1.15,2013-04-18 07:43:00,
2013-04-18 02:44:00,52.9,52.6,29.67,NNW,343,4.0,8.0,99,1.76,,,0.95,Wunderground v.1.15,2013-04-18 07:44:00,
2013-04-18 02:46:00,52.7,52.4,29.66,NNE,27,4.0,8.0,99,0.97,,,0.99,Wunderground v.1.15,2013-04-18 07:46:00,
2013-04-18 02:49:00,52.4,52.1,29.67,NNE,33,5.0,8.0,99,0.46,,,1.02,Wunderground v.1.15,2013-04-18 07:49:00,
2013-04-18 02:50:00,52.3,52.0,29.68,North,349,5.0,5.0,99,0.39,,,1.03,Wunderground v.1.15,2013-04-18 07:50:00,
2013-04-18 02:56:00,51.8,51.3,29.66,NNE,30,4.0,6.0,98,1.02,,,1.07,Wunderground v.1.15,2013-04-18 07:56:00,
2013-04-18 02:57:00,51.6,51.1,29.66,NNW,346,4.0,7.0,98,1.22,,,1.09,Wunderground v.1.15,2013-04-18 07:57:00,
2013-04-18 02:58:00,51.5,51.0,29.66,NNW,329,4.0,7.0,98,0.90,,,1.11,Wunderground v.1.15,2013-04-18 07:58:00,
2013-04-18 03:01:00,51.1,50.6,29.66,NNW,338,5.0,10.0,98,1.93,,,1.14,Wunderground v.1.15,2013-04-18 08:01:00,
2013-04-18 03:02:00,51.0,50.5,29.66,NNW,338,5.0,10.0,98,1.13,,,1.17,Wunderground v.1.15,2013-04-18 08:02:00,
2013-04-18 03:04:00,50.8,50.3,29.65,NNW,333,5.0,10.0,98,0.50,,,1.18,Wunderground v.1.15,2013-04-18 08:04:00,
2013-04-18 03:07:00,50.6,50.1,29.66,North,353,4.0,10.0,98,0.21,,,1.19,Wunderground v.1.15,2013-04-18 08:07:00,
2013-04-18 03:08:00,50.6,50.1,29.66,NNW,342,4.0,10.0,98,0.21,,,1.19,Wunderground v.1.15,2013-04-18 08:08:00,
2013-04-18 03:11:00,50.6,50.1,29.65,NNE,23,3.0,3.0,98,0.67,,,1.21,Wunderground v.1.15,2013-04-18 08:11:00,
2013-04-18 03:13:00,50.6,50.1,29.65,NNW,343,2.0,3.0,98,1.11,,,1.24,Wunderground v.1.15,2013-04-18 08:13:00,
2013-04-18 03:15:00,50.7,50.2,29.65,NE,41,2.0,3.0,98,0.82,,,1.28,Wunderground v.1.15,2013-04-18 08:15:00,
2013-04-18 03:16:00,50.7,50.2,29.65,NNE,19,2.0,3.0,98,0.35,,,1.29,Wunderground v.1.15,2013-04-18 08:16:00,
2013-04-18 03:20:00,50.8,50.5,29.65,NNW,330,2.0,2.0,99,0.27,,,1.30,Wunderground v.1.15,2013-04-18 08:20:00,
2013-04-18 03:23:00,50.8,50.5,29.64,NNE,33,2.0,2.0,99,0.18,,,1.31,Wunderground v.1.15,2013-04-18 08:23:00,
2013-04-18 03:25:00,50.8,50.5,29.64,NNW,346,2.0,4.0,99,0.16,,,1.31,Wunderground v.1.15,2013-04-18 08:25:00,
2013-04-18 03:26:00,50.8,50.5,29.64,North,351,2.0,4.0,99,0.13,,,1.31,Wunderground v.1.15,2013-04-18 08:26:00,
2013-04-18 03:28:00,50.8,50.5,29.63,NNW,330,2.0,4.0,99,0.09,,,1.31,Wunderground v.1.15,2013-04-18 08:28:00,
2013-04-18 03:29:00,50.8,50.5,29.63,NNW,333,2.0,4.0,99,0.09,,,1.32,Wunderground v.1.15,2013-04-18 08:29:00,
2013-04-18 03:31:00,50.8,50.5,29.63,ENE,67,2.0,2.0,99,0.09,,,1.32,Wunderground v.1.15,2013-04-18 08:31:00,
2013-04-18 03:33:00,50.8,50.5,29.63,NNE,26,3.0,6.0,99,0.09,,,1.32,Wunderground v.1.15,2013-04-18 08:33:00,
2013-04-18 03:35:00,50.8,50.5,29.63,NNE,32,3.0,6.0,99,0.09,,,1.32,Wunderground v.1.15,2013-04-18 08:35:00,
2013-04-18 03:40:00,50.6,50.3,29.62,NNE,19,2.0,2.0,99,0.05,,,1.32,Wunderground v.1.15,2013-04-18 08:40:00,
2013-04-18 03:41:00,50.6,50.3,29.62,NE,35,2.0,2.0,99,0.05,,,1.32,Wunderground v.1.15,2013-04-18 08:41:00,
2013-04-18 03:42:00,50.6,50.3,29.61,NNE,23,2.0,4.0,99,0.04,,,1.32,Wunderground v.1.15,2013-04-18 08:42:00,
2013-04-18 03:44:00,50.6,50.3,29.61,NW,311,2.0,4.0,99,0.04,,,1.32,Wunderground v.1.15,2013-04-18 08:44:00,
2013-04-18 03:45:00,50.7,50.4,29.61,North,356,2.0,4.0,99,0.04,,,1.32,Wunderground v.1.15,2013-04-18 08:45:00,
2013-04-18 03:46:00,50.8,50.5,29.61,NNE,31,2.0,4.0,99,0.00,,,1.32,Wunderground v.1.15,2013-04-18 08:46:00,
2013-04-18 03:49:00,50.8,50.5,29.61,NNE,32,2.0,4.0,99,0.00,,,1.33,Wunderground v.1.15,2013-04-18 08:49:00,
2013-04-18 03:50:00,50.9,50.6,29.61,NE,46,2.0,3.0,99,0.00,,,1.33,Wunderground v.1.15,2013-04-18 08:50:00,
2013-04-18 03:51:00,50.9,50.6,29.61,ENE,75,2.0,3.0,99,0.00,,,1.33,Wunderground v.1.15,2013-04-18 08:51:00,
2013-04-18 03:54:00,50.9,50.6,29.60,NNE,32,3.0,7.0,99,0.00,,,1.33,Wunderground v.1.15,2013-04-18 08:54:00,
2013-04-18 03:55:00,50.9,50.6,29.60,NNW,346,3.0,7.0,99,0.00,,,1.33,Wunderground v.1.15,2013-04-18 08:55:00,
2013-04-18 04:00:00,50.9,50.6,29.60,NNW,330,3.0,3.0,99,0.00,,,1.33,Wunderground v.1.15,2013-04-18 09:00:00,
2013-04-18 04:01:00,51.0,50.7,29.60,NNW,342,3.0,3.0,99,0.00,,,1.33,Wunderground v.1.15,2013-04-18 09:01:00,
2013-04-18 04:03:00,51.0,50.7,29.60,NE,41,2.0,3.0,99,0.00,,,1.33,Wunderground v.1.15,2013-04-18 09:03:00,
2013-04-18 04:04:00,51.1,50.8,29.60,NE,43,2.0,3.0,99,0.00,,,1.33,Wunderground v.1.15,2013-04-18 09:04:00,
2013-04-18 04:07:00,51.2,50.9,29.60,NNW,333,2.0,3.0,99,0.00,,,1.33,Wunderground v.1.15,2013-04-18 09:07:00,
2013-04-18 04:08:00,51.2,50.9,29.60,NE,40,1.0,3.0,99,0.00,,,1.33,Wunderground v.1.15,2013-04-18 09:08:00,
2013-04-18 04:09:00,51.2,50.9,29.59,East,87,2.0,2.0,99,0.00,,,1.33,Wunderground v.1.15,2013-04-18 09:09:00,
2013-04-18 04:10:00,51.2,50.9,29.60,NE,56,1.0,2.0,99,0.00,,,1.34,Wunderground v.1.15,2013-04-18 09:10:00,
2013-04-18 04:13:00,51.3,51.0,29.59,NNE,27,2.0,13.0,99,0.21,,,1.35,Wunderground v.1.15,2013-04-18 09:13:00,
2013-04-18 04:14:00,51.4,51.1,29.59,NE,34,2.0,13.0,99,0.21,,,1.35,Wunderground v.1.15,2013-04-18 09:14:00,
2013-04-18 04:15:00,51.4,51.1,29.59,NNE,32,2.0,13.0,99,0.21,,,1.35,Wunderground v.1.15,2013-04-18 09:15:00,
2013-04-18 04:18:00,51.5,51.2,29.59,East,86,2.0,13.0,99,0.11,,,1.35,Wunderground v.1.15,2013-04-18 09:18:00,
2013-04-18 04:20:00,51.6,51.3,29.58,NE,43,3.0,7.0,99,0.08,,,1.35,Wunderground v.1.15,2013-04-18 09:20:00,
2013-04-18 04:22:00,51.7,51.4,29.59,NE,41,2.0,7.0,99,0.06,,,1.35,Wunderground v.1.15,2013-04-18 09:22:00,
2013-04-18 04:24:00,51.7,51.4,29.59,NE,40,2.0,7.0,99,0.06,,,1.35,Wunderground v.1.15,2013-04-18 09:24:00,
2013-04-18 04:25:00,51.8,51.5,29.59,NNE,23,2.0,7.0,99,0.05,,,1.35,Wunderground v.1.15,2013-04-18 09:25:00,
2013-04-18 04:29:00,51.9,51.6,29.60,NNW,346,2.0,7.0,99,0.04,,,1.35,Wunderground v.1.15,2013-04-18 09:29:00,
2013-04-18 04:30:00,51.9,51.6,29.60,WNW,290,2.0,2.0,99,0.04,,,1.35,Wunderground v.1.15,2013-04-18 09:30:00,
2013-04-18 04:31:00,52.0,51.7,29.61,NW,304,1.0,2.0,99,0.00,,,1.35,Wunderground v.1.15,2013-04-18 09:31:00,
2013-04-18 04:32:00,52.0,51.7,29.62,NNW,344,1.0,2.0,99,0.00,,,1.35,Wunderground v.1.15,2013-04-18 09:32:00,
2013-04-18 04:34:00,52.0,51.7,29.61,NE,40,1.0,2.0,99,0.00,,,1.36,Wunderground v.1.15,2013-04-18 09:34:00,
2013-04-18 04:36:00,52.1,51.8,29.60,East,82,1.0,3.0,99,0.78,,,1.38,Wunderground v.1.15,2013-04-18 09:36:00,
2013-04-18 04:38:00,52.2,51.9,29.59,ENE,68,2.0,11.0,99,0.35,,,1.39,Wunderground v.1.15,2013-04-18 09:38:00,
2013-04-18 04:40:00,52.2,51.9,29.58,NNE,17,3.0,3.0,99,0.16,,,1.39,Wunderground v.1.15,2013-04-18 09:40:00,
2013-04-18 04:41:00,52.2,51.9,29.58,NNW,338,3.0,3.0,99,0.13,,,1.39,Wunderground v.1.15,2013-04-18 09:41:00,
2013-04-18 04:42:00,52.2,51.9,29.58,NE,49,3.0,3.0,99,0.10,,,1.39,Wunderground v.1.15,2013-04-18 09:42:00,
2013-04-18 04:45:00,52.3,52.0,29.57,NNE,30,3.0,3.0,99,0.07,,,1.39,Wunderground v.1.15,2013-04-18 09:45:00,
2013-04-18 04:46:00,52.3,52.0,29.58,NE,44,3.0,9.0,99,0.06,,,1.39,Wunderground v.1.15,2013-04-18 09:46:00,
2013-04-18 04:48:00,52.4,52.1,29.58,NE,56,2.0,9.0,99,0.05,,,1.39,Wunderground v.1.15,2013-04-18 09:48:00,
2013-04-18 04:49:00,52.4,52.1,29.58,East,91,2.0,5.0,99,0.05,,,1.39,Wunderground v.1.15,2013-04-18 09:49:00,
2013-04-18 04:53:00,52.4,52.1,29.58,NE,56,3.0,11.0,99,0.04,,,1.39,Wunderground v.1.15,2013-04-18 09:53:00,
2013-04-18 04:54:00,52.4,52.1,29.58,ENE,72,3.0,11.0,99,0.00,,,1.39,Wunderground v.1.15,2013-04-18 09:54:00,
2013-04-18 04:55:00,52.4,52.1,29.58,NE,53,4.0,11.0,99,0.00,,,1.40,Wunderground v.1.15,2013-04-18 09:55:00,
2013-04-18 04:57:00,52.3,52.0,29.58,NNE,30,3.0,11.0,99,0.00,,,1.40,Wunderground v.1.15,2013-04-18 09:57:00,
2013-04-18 04:58:00,52.3,52.0,29.58,ENE,60,4.0,11.0,99,0.00,,,1.40,Wunderground v.1.15,2013-04-18 09:58:00,
2013-04-18 05:01:00,52.2,51.9,29.58,NW,324,3.0,6.0,99,0.00,,,1.40,Wunderground v.1.15,2013-04-18 10:01:00,
2013-04-18 05:02:00,52.2,51.9,29.58,East,96,2.0,6.0,99,0.00,,,1.40,Wunderground v.1.15,2013-04-18 10:02:00,
2013-04-18 05:05:00,52.1,51.8,29.57,North,8,1.0,6.0,99,0.00,,,1.40,Wunderground v.1.15,2013-04-18 10:05:00,
2013-04-18 05:06:00,52.1,51.8,29.57,NE,53,1.0,6.0,99,0.00,,,1.40,Wunderground v.1.15,2013-04-18 10:06:00,
2013-04-18 05:07:00,52.1,51.8,29.57,NW,324,1.0,6.0,99,0.00,,,1.40,Wunderground v.1.15,2013-04-18 10:07:00,
2013-04-18 05:11:00,52.0,51.7,29.57,NNE,20,1.0,3.0,99,0.00,,,1.40,Wunderground v.1.15,2013-04-18 10:11:00,
2013-04-18 05:12:00,52.0,51.7,29.56,NE,49,1.0,3.0,99,0.00,,,1.40,Wunderground v.1.15,2013-04-18 10:12:00,
2013-04-18 05:14:00,52.0,51.7,29.55,NNE,33,1.0,3.0,99,0.00,,,1.40,Wunderground v.1.15,2013-04-18 10:14:00,
2013-04-18 05:16:00,52.0,51.7,29.55,SW,221,2.0,3.0,99,0.00,,,1.40,Wunderground v.1.15,2013-04-18 10:16:00,
2013-04-18 05:19:00,52.1,51.8,29.55,West,267,2.0,9.0,99,0.00,,,1.40,Wunderground v.1.15,2013-04-18 10:19:00,
2013-04-18 05:20:00,52.2,51.9,29.67,WSW,249,4.0,8.0,99,0.00,,,1.41,Wunderground v.1.15,2013-04-18 10:20:00,
2013-04-18 05:21:00,52.2,51.9,29.66,SW,235,4.0,8.0,99,4.09,,,1.46,Wunderground v.1.15,2013-04-18 10:21:00,
2013-04-18 05:24:00,52.2,51.9,29.64,SE,133,4.0,8.0,99,5.94,,,1.63,Wunderground v.1.15,2013-04-18 10:24:00,
2013-04-18 05:25:00,52.2,51.9,29.61,ENE,77,4.0,8.0,99,1.89,,,1.70,Wunderground v.1.15,2013-04-18 10:25:00,
2013-04-18 05:28:00,52.1,51.8,29.59,NNE,23,4.0,8.0,99,0.81,,,1.74,Wunderground v.1.15,2013-04-18 10:28:00,
2013-04-18 05:29:00,52.1,51.8,29.59,North,349,4.0,8.0,99,0.44,,,1.74,Wunderground v.1.15,2013-04-18 10:29:00,
2013-04-18 05:31:00,52.1,51.8,29.59,North,1,3.0,4.0,99,0.31,,,1.75,Wunderground v.1.15,2013-04-18 10:31:00,
2013-04-18 05:33:00,52.3,52.0,29.60,North,6,2.0,4.0,99,0.18,,,1.76,Wunderground v.1.15,2013-04-18 10:33:00,
2013-04-18 05:34:00,52.4,52.1,29.60,NE,44,2.0,4.0,99,0.18,,,1.76,Wunderground v.1.15,2013-04-18 10:34:00,
2013-04-18 05:36:00,52.5,52.2,29.59,NE,44,2.0,4.0,99,0.17,,,1.76,Wunderground v.1.15,2013-04-18 10:36:00,
2013-04-18 05:37:00,52.5,52.2,29.59,NNE,33,2.0,4.0,99,0.12,,,1.77,Wunderground v.1.15,2013-04-18 10:37:00,
2013-04-18 05:40:00,52.5,52.2,29.58,ENE,61,2.0,4.0,99,0.27,,,1.78,Wunderground v.1.15,2013-04-18 10:40:00,
2013-04-18 05:41:00,52.5,52.2,29.58,NE,43,2.0,5.0,99,0.27,,,1.78,Wunderground v.1.15,2013-04-18 10:41:00,
2013-04-18 05:44:00,52.7,52.4,29.58,ENE,65,3.0,5.0,99,0.32,,,1.80,Wunderground v.1.15,2013-04-18 10:44:00,
2013-04-18 05:45:00,52.7,52.4,29.58,ENE,68,3.0,5.0,99,0.30,,,1.80,Wunderground v.1.15,2013-04-18 10:45:00,
2013-04-18 05:49:00,52.8,52.5,29.59,East,96,3.0,3.0,99,0.28,,,1.82,Wunderground v.1.15,2013-04-18 10:49:00,
2013-04-18 05:50:00,52.9,52.6,29.59,ESE,110,3.0,3.0,99,0.25,,,1.82,Wunderground v.1.15,2013-04-18 10:50:00,
2013-04-18 05:51:00,52.9,52.6,29.59,ENE,71,3.0,3.0,99,0.21,,,1.83,Wunderground v.1.15,2013-04-18 10:51:00,
2013-04-18 05:53:00,52.9,52.6,29.59,NE,41,3.0,3.0,99,0.21,,,1.83,Wunderground v.1.15,2013-04-18 10:53:00,
2013-04-18 05:54:00,53.0,52.7,29.59,NE,51,3.0,3.0,99,0.21,,,1.83,Wunderground v.1.15,2013-04-18 10:54:00,
2013-04-18 05:57:00,53.1,52.8,29.59,NNE,26,2.0,3.0,99,0.25,,,1.85,Wunderground v.1.15,2013-04-18 10:57:00,
2013-04-18 05:58:00,53.2,52.9,29.59,NE,53,2.0,3.0,99,0.33,,,1.85,Wunderground v.1.15,2013-04-18 10:58:00,
2013-04-18 06:00:00,53.2,52.9,29.59,ENE,68,1.0,3.0,99,0.33,,,1.86,Wunderground v.1.15,2013-04-18 11:00:00,
2013-04-18 06:03:00,53.2,52.9,29.58,ENE,70,2.0,3.0,99,0.35,,,1.89,Wunderground v.1.15,2013-04-18 11:03:00,
2013-04-18 06:04:00,53.2,52.9,29.57,ENE,64,2.0,3.0,99,0.39,,,1.90,Wunderground v.1.15,2013-04-18 11:04:00,
2013-04-18 06:10:00,53.2,52.9,29.55,ENE,72,2.0,2.0,99,0.33,,,1.92,Wunderground v.1.15,2013-04-18 11:10:00,
2013-04-18 06:11:00,53.2,52.9,29.55,NNE,23,2.0,2.0,99,0.26,,,1.93,Wunderground v.1.15,2013-04-18 11:11:00,
2013-04-18 06:14:00,53.2,52.9,29.57,NNE,24,2.0,2.0,99,0.17,,,1.93,Wunderground v.1.15,2013-04-18 11:14:00,
2013-04-18 06:16:00,53.3,53.0,29.57,ENE,65,1.0,2.0,99,0.13,,,1.94,Wunderground v.1.15,2013-04-18 11:16:00,
2013-04-18 06:19:00,53.3,53.0,29.57,North,6,1.0,2.0,99,0.18,,,1.95,Wunderground v.1.15,2013-04-18 11:19:00,
2013-04-18 06:21:00,53.3,53.0,29.56,NE,34,1.0,1.0,99,0.18,,,1.95,Wunderground v.1.15,2013-04-18 11:21:00,
2013-04-18 06:22:00,53.2,52.9,29.55,NNE,26,1.0,1.0,99,0.18,,,1.95,Wunderground v.1.15,2013-04-18 11:22:00,
2013-04-18 06:26:00,53.2,52.9,29.53,ENE,63,1.0,5.0,99,0.20,,,1.97,Wunderground v.1.15,2013-04-18 11:26:00,
2013-04-18 06:27:00,53.3,53.0,29.54,NE,44,1.0,5.0,99,0.20,,,1.97,Wunderground v.1.15,2013-04-18 11:27:00,
2013-04-18 06:31:00,53.4,53.1,29.55,NNE,33,2.0,2.0,99,0.16,,,1.98,Wunderground v.1.15,2013-04-18 11:31:00,
2013-04-18 06:32:00,53.4,53.1,29.55,ENE,65,2.0,2.0,99,0.16,,,1.98,Wunderground v.1.15,2013-04-18 11:32:00,
2013-04-18 06:36:00,53.5,53.2,29.55,East,79,1.0,2.0,99,0.14,,,1.99,Wunderground v.1.15,2013-04-18 11:36:00,
2013-04-18 06:37:00,53.5,53.2,29.56,NE,56,1.0,2.0,99,0.14,,,1.99,Wunderground v.1.15,2013-04-18 11:37:00,
2013-04-18 06:39:00,53.6,53.3,29.58,ESE,123,1.0,2.0,99,0.15,,,2.00,Wunderground v.1.15,2013-04-18 11:39:00,
2013-04-18 06:42:00,53.6,53.3,29.59,East,93,1.0,2.0,99,0.13,,,2.01,Wunderground v.1.15,2013-04-18 11:42:00,
2013-04-18 06:44:00,53.6,53.3,29.58,ENE,62,1.0,3.0,99,0.36,,,2.02,Wunderground v.1.15,2013-04-18 11:44:00,
2013-04-18 06:46:00,53.6,53.3,29.58,ENE,72,1.0,3.0,99,0.26,,,2.03,Wunderground v.1.15,2013-04-18 11:46:00,
2013-04-18 06:48:00,53.6,53.3,29.58,East,84,1.0,3.0,99,0.26,,,2.03,Wunderground v.1.15,2013-04-18 11:48:00,
2013-04-18 06:52:00,53.6,53.3,29.58,ENE,74,1.0,3.0,99,0.26,,,2.05,Wunderground v.1.15,2013-04-18 11:52:00,
2013-04-18 06:53:00,53.6,53.3,29.59,ESE,108,1.0,3.0,99,0.26,,,2.05,Wunderground v.1.15,2013-04-18 11:53:00,
2013-04-18 06:55:00,53.6,53.3,29.59,NE,44,1.0,3.0,99,0.21,,,2.06,Wunderground v.1.15,2013-04-18 11:55:00,
2013-04-18 06:57:00,53.6,53.3,29.58,ENE,72,1.0,3.0,99,0.29,,,2.07,Wunderground v.1.15,2013-04-18 11:57:00,
2013-04-18 07:00:00,53.6,53.3,29.58,ENE,68,1.0,1.0,99,0.29,,,2.08,Wunderground v.1.15,2013-04-18 12:00:00,
2013-04-18 07:01:00,53.6,53.3,29.58,ESE,102,1.0,1.0,99,0.26,,,2.09,Wunderground v.1.15,2013-04-18 12:01:00,
2013-04-18 07:02:00,53.6,53.3,29.57,ENE,65,1.0,1.0,99,0.26,,,2.10,Wunderground v.1.15,2013-04-18 12:02:00,
2013-04-18 07:05:00,53.6,53.3,29.57,East,81,1.0,4.0,99,0.33,,,2.11,Wunderground v.1.15,2013-04-18 12:05:00,
2013-04-18 07:06:00,53.6,53.3,29.57,ENE,61,1.0,5.0,99,0.33,,,2.11,Wunderground v.1.15,2013-04-18 12:06:00,
2013-04-18 07:07:00,53.6,53.3,29.57,ENE,60,1.0,5.0,99,0.31,,,2.12,Wunderground v.1.15,2013-04-18 12:07:00,
2013-04-18 07:10:00,53.6,53.3,29.57,ENE,57,1.0,2.0,99,0.47,,,2.14,Wunderground v.1.15,2013-04-18 12:10:00,
2013-04-18 07:11:00,53.6,53.3,29.56,NE,42,2.0,2.0,99,0.44,,,2.15,Wunderground v.1.15,2013-04-18 12:11:00,
2013-04-18 07:12:00,53.6,53.3,29.56,East,93,2.0,2.0,99,0.28,,,2.15,Wunderground v.1.15,2013-04-18 12:12:00,
2013-04-18 07:15:00,53.5,53.2,29.57,East,86,1.0,2.0,99,0.42,,,2.17,Wunderground v.1.15,2013-04-18 12:15:00,
2013-04-18 07:17:00,53.5,53.2,29.57,ESE,123,1.0,2.0,99,0.29,,,2.18,Wunderground v.1.15,2013-04-18 12:17:00,
2013-04-18 07:18:00,53.5,53.2,29.57,East,89,1.0,2.0,99,0.28,,,2.19,Wunderground v.1.15,2013-04-18 12:18:00,
2013-04-18 07:20:00,53.5,53.2,29.58,SE,132,1.0,3.0,99,0.22,,,2.19,Wunderground v.1.15,2013-04-18 12:20:00,
2013-04-18 07:21:00,53.5,53.2,29.58,ESE,110,2.0,4.0,99,0.17,,,2.20,Wunderground v.1.15,2013-04-18 12:21:00,
2013-04-18 07:24:00,53.5,53.2,29.58,ESE,105,2.0,4.0,99,0.17,,,2.20,Wunderground v.1.15,2013-04-18 12:24:00,
2013-04-18 07:25:00,53.5,53.2,29.58,ESE,115,2.0,4.0,99,0.14,,,2.20,Wunderground v.1.15,2013-04-18 12:25:00,
2013-04-18 07:26:00,53.5,53.2,29.58,East,100,2.0,4.0,99,0.12,,,2.20,Wunderground v.1.15,2013-04-18 12:26:00,
2013-04-18 07:29:00,53.5,53.2,29.57,ENE,72,2.0,2.0,99,0.12,,,2.21,Wunderground v.1.15,2013-04-18 12:29:00,
2013-04-18 07:33:00,53.4,53.1,29.57,East,85,2.0,2.0,99,0.13,,,2.22,Wunderground v.1.15,2013-04-18 12:33:00,
2013-04-18 07:35:00,53.5,53.2,29.56,ENE,65,2.0,2.0,99,0.19,,,2.23,Wunderground v.1.15,2013-04-18 12:35:00,
2013-04-18 07:37:00,53.5,53.2,29.56,East,92,1.0,2.0,99,0.21,,,2.24,Wunderground v.1.15,2013-04-18 12:37:00,
2013-04-18 07:39:00,53.5,53.2,29.56,East,98,1.0,2.0,99,0.21,,,2.24,Wunderground v.1.15,2013-04-18 12:39:00,
2013-04-18 07:41:00,53.5,53.2,29.56,ESE,120,1.0,2.0,99,0.24,,,2.25,Wunderground v.1.15,2013-04-18 12:41:00,
2013-04-18 07:42:00,53.5,53.2,29.56,ESE,116,1.0,2.0,99,0.28,,,2.26,Wunderground v.1.15,2013-04-18 12:42:00,
2013-04-18 07:44:00,53.5,53.2,29.57,ESE,105,1.0,2.0,99,0.30,,,2.27,Wunderground v.1.15,2013-04-18 12:44:00,
2013-04-18 07:46:00,53.5,53.2,29.57,East,98,1.0,2.0,99,0.30,,,2.27,Wunderground v.1.15,2013-04-18 12:46:00,
2013-04-18 07:47:00,53.4,53.1,29.57,ESE,110,1.0,2.0,99,0.24,,,2.28,Wunderground v.1.15,2013-04-18 12:47:00,
2013-04-18 07:50:00,53.4,53.1,29.56,East,89,1.0,1.0,99,0.23,,,2.29,Wunderground v.1.15,2013-04-18 12:50:00,
2013-04-18 07:51:00,53.4,53.1,29.57,ENE,71,0.0,1.0,99,0.23,,,2.29,Wunderground v.1.15,2013-04-18 12:51:00,
2013-04-18 07:53:00,53.4,53.1,29.56,ESE,114,0.0,1.0,99,0.27,,,2.30,Wunderground v.1.15,2013-04-18 12:53:00,
2013-04-18 07:54:00,53.4,53.1,29.56,ESE,114,0.0,1.0,99,0.26,,,2.30,Wunderground v.1.15,2013-04-18 12:54:00,
2013-04-18 07:55:00,53.4,53.1,29.56,ESE,115,0.0,1.0,99,0.23,,,2.31,Wunderground v.1.15,2013-04-18 12:55:00,
2013-04-18 07:58:00,53.4,53.1,29.56,ESE,111,0.0,1.0,99,0.27,,,2.32,Wunderground v.1.15,2013-04-18 12:58:00,
2013-04-18 08:00:00,53.4,53.1,29.56,SE,127,0.0,1.0,99,0.20,,,2.33,Wunderground v.1.15,2013-04-18 13:00:00,
2013-04-18 08:01:00,53.4,53.1,29.56,SE,126,0.0,1.0,99,0.20,,,2.33,Wunderground v.1.15,2013-04-18 13:01:00,
2013-04-18 08:02:00,53.4,53.1,29.56,SE,141,0.0,1.0,99,0.20,,,2.33,Wunderground v.1.15,2013-04-18 13:02:00,
2013-04-18 08:03:00,53.4,53.1,29.56,ESE,109,0.0,2.0,99,0.17,,,2.33,Wunderground v.1.15,2013-04-18 13:03:00,
2013-04-18 08:06:00,53.4,53.1,29.57,SE,125,1.0,3.0,99,0.15,,,2.34,Wunderground v.1.15,2013-04-18 13:06:00,
2013-04-18 08:07:00,53.3,53.0,29.57,East,101,1.0,4.0,99,0.15,,,2.34,Wunderground v.1.15,2013-04-18 13:07:00,
2013-04-18 08:08:00,53.3,53.0,29.57,SE,127,1.0,4.0,99,0.14,,,2.35,Wunderground v.1.15,2013-04-18 13:08:00,
2013-04-18 08:10:00,53.3,53.0,29.57,SE,137,1.0,4.0,99,0.14,,,2.35,Wunderground v.1.15,2013-04-18 13:10:00,
2013-04-18 08:12:00,53.4,53.1,29.57,ESE,116,2.0,5.0,99,0.14,,,2.35,Wunderground v.1.15,2013-04-18 13:12:00,
2013-04-18 08:14:00,53.4,53.1,29.57,SE,125,2.0,5.0,99,0.09,,,2.35,Wunderground v.1.15,2013-04-18 13:14:00,
2013-04-18 08:15:00,53.4,53.1,29.57,SE,127,3.0,5.0,99,0.08,,,2.35,Wunderground v.1.15,2013-04-18 13:15:00,
2013-04-18 08:16:00,53.4,53.1,29.58,SE,142,3.0,5.0,99,0.08,,,2.36,Wunderground v.1.15,2013-04-18 13:16:00,
2013-04-18 08:17:00,53.4,53.1,29.58,ESE,113,3.0,5.0,99,0.08,,,2.36,Wunderground v.1.15,2013-04-18 13:17:00,
2013-04-18 08:19:00,53.4,53.1,29.58,SE,137,3.0,5.0,99,0.08,,,2.36,Wunderground v.1.15,2013-04-18 13:19:00,
2013-04-18 08:21:00,53.4,53.1,29.58,ESE,120,4.0,7.0,99,0.12,,,2.37,Wunderground v.1.15,2013-04-18 13:21:00,
2013-04-18 08:24:00,53.4,53.1,29.57,SE,141,5.0,9.0,99,0.19,,,2.38,Wunderground v.1.15,2013-04-18 13:24:00,
2013-04-18 08:25:00,53.4,53.1,29.57,SSE,148,6.0,9.0,99,0.19,,,2.38,Wunderground v.1.15,2013-04-18 13:25:00,
2013-04-18 08:27:00,53.4,53.1,29.57,SE,127,6.0,9.0,99,0.17,,,2.38,Wunderground v.1.15,2013-04-18 13:27:00,
2013-04-18 08:28:00,53.4,53.1,29.57,SSE,150,7.0,9.0,99,0.13,,,2.38,Wunderground v.1.15,2013-04-18 13:28:00,
2013-04-18 08:32:00,53.5,53.2,29.55,East,86,6.0,7.0,99,0.12,,,2.39,Wunderground v.1.15,2013-04-18 13:32:00,
2013-04-18 08:33:00,53.5,53.2,29.54,East,94,6.0,8.0,99,0.11,,,2.39,Wunderground v.1.15,2013-04-18 13:33:00,
2013-04-18 08:36:00,53.6,53.3,29.54,ESE,110,6.0,10.0,99,0.09,,,2.40,Wunderground v.1.15,2013-04-18 13:36:00,
2013-04-18 08:37:00,53.6,53.3,29.55,SE,136,5.0,10.0,99,0.09,,,2.40,Wunderground v.1.15,2013-04-18 13:37:00,
2013-04-18 08:39:00,53.6,53.3,29.55,SE,145,5.0,10.0,99,0.09,,,2.40,Wunderground v.1.15,2013-04-18 13:39:00,
2013-04-18 08:40:00,53.6,53.3,29.55,SE,131,5.0,5.0,99,0.09,,,2.40,Wunderground v.1.15,2013-04-18 13:40:00,
2013-04-18 08:42:00,53.7,53.4,29.56,ESE,106,5.0,6.0,99,0.09,,,2.40,Wunderground v.1.15,2013-04-18 13:42:00,
2013-04-18 08:43:00,53.7,53.4,29.55,ESE,103,5.0,6.0,99,0.08,,,2.40,Wunderground v.1.15,2013-04-18 13:43:00,
2013-04-18 08:44:00,53.8,53.5,29.55,SE,131,5.0,6.0,99,0.07,,,2.40,Wunderground v.1.15,2013-04-18 13:44:00,
2013-04-18 08:47:00,53.9,53.6,29.55,ESE,105,5.0,8.0,99,0.05,,,2.40,Wunderground v.1.15,2013-04-18 13:47:00,
2013-04-18 08:49:00,54.1,53.8,29.55,SE,127,5.0,8.0,99,0.04,,,2.40,Wunderground v.1.15,2013-04-18 13:49:00,
2013-04-18 08:51:00,54.2,53.9,29.55,SE,145,5.0,5.0,99,0.04,,,2.40,Wunderground v.1.15,2013-04-18 13:51:00,
2013-04-18 08:52:00,54.2,53.9,29.56,SE,134,5.0,8.0,99,0.04,,,2.41,Wunderground v.1.15,2013-04-18 13:52:00,
2013-04-18 08:54:00,54.3,54.0,29.55,SSE,153,6.0,9.0,99,0.04,,,2.41,Wunderground v.1.15,2013-04-18 13:54:00,
2013-04-18 08:55:00,54.3,54.0,29.55,SE,142,6.0,9.0,99,0.04,,,2.41,Wunderground v.1.15,2013-04-18 13:55:00,
2013-04-18 08:57:00,54.4,54.1,29.55,SE,131,6.0,9.0,99,0.04,,,2.41,Wunderground v.1.15,2013-04-18 13:57:00,
2013-04-18 08:59:00,54.4,54.1,29.55,SE,141,6.0,9.0,99,0.04,,,2.41,Wunderground v.1.15,2013-04-18 13:59:00,
2013-04-18 09:00:00,54.5,54.2,29.55,SE,126,6.0,6.0,99,0.04,,,2.41,Wunderground v.1.15,2013-04-18 14:00:00,
2013-04-18 09:01:00,54.6,54.3,29.55,SSE,160,6.0,9.0,99,0.04,,,2.41,Wunderground v.1.15,2013-04-18 14:01:00,
2013-04-18 09:06:00,54.8,54.5,29.54,ESE,107,6.0,9.0,99,0.04,,,2.41,Wunderground v.1.15,2013-04-18 14:06:00,
2013-04-18 09:07:00,54.9,54.6,29.53,ESE,110,7.0,9.0,99,0.04,,,2.41,Wunderground v.1.15,2013-04-18 14:07:00,
2013-04-18 09:08:00,54.9,54.6,29.53,ESE,109,7.0,9.0,99,0.04,,,2.41,Wunderground v.1.15,2013-04-18 14:08:00,
2013-04-18 09:10:00,55.0,54.7,29.52,ESE,123,7.0,9.0,99,0.00,,,2.41,Wunderground v.1.15,2013-04-18 14:10:00,
2013-04-18 09:11:00,55.1,54.8,29.52,ESE,123,7.0,9.0,99,0.00,,,2.41,Wunderground v.1.15,2013-04-18 14:11:00,
2013-04-18 09:14:00,55.3,55.0,29.53,SE,143,8.0,9.0,99,0.00,,,2.41,Wunderground v.1.15,2013-04-18 14:14:00,
2013-04-18 09:16:00,55.6,55.3,29.55,SSE,156,8.0,9.0,99,0.00,,,2.41,Wunderground v.1.15,2013-04-18 14:16:00,
2013-04-18 09:17:00,55.7,55.4,29.55,SSW,203,7.0,9.0,99,0.00,,,2.41,Wunderground v.1.15,2013-04-18 14:17:00,
2013-04-18 09:20:00,55.9,55.6,29.57,SSW,203,8.0,8.0,99,0.00,,,2.41,Wunderground v.1.15,2013-04-18 14:20:00,
2013-04-18 09:22:00,56.0,55.7,29.57,SSW,195,8.0,8.0,99,0.00,,,2.41,Wunderground v.1.15,2013-04-18 14:22:00,
2013-04-18 09:24:00,56.2,55.9,29.58,SW,235,8.0,8.0,99,0.00,,,2.41,Wunderground v.1.15,2013-04-18 14:24:00,
2013-04-18 09:28:00,56.4,56.1,29.58,SSW,210,8.0,10.0,99,0.00,,,2.41,Wunderground v.1.15,2013-04-18 14:28:00,
2013-04-18 09:29:00,56.4,56.1,29.58,SW,215,8.0,10.0,99,0.00,,,2.41,Wunderground v.1.15,2013-04-18 14:29:00,
2013-04-18 09:31:00,56.5,56.2,29.58,SW,231,7.0,9.0,99,0.00,,,2.41,Wunderground v.1.15,2013-04-18 14:31:00,
2013-04-18 09:32:00,56.6,56.3,29.58,SW,233,7.0,9.0,99,0.00,,,2.41,Wunderground v.1.15,2013-04-18 14:32:00,
2013-04-18 09:35:00,56.6,56.3,29.58,SW,224,7.0,9.0,99,0.00,,,2.41,Wunderground v.1.15,2013-04-18 14:35:00,
2013-04-18 09:37:00,56.7,56.4,29.58,SSW,212,7.0,9.0,99,0.00,,,2.41,Wunderground v.1.15,2013-04-18 14:37:00,
2013-04-18 09:38:00,56.7,56.4,29.57,SSW,212,7.0,9.0,99,0.00,,,2.41,Wunderground v.1.15,2013-04-18 14:38:00,
2013-04-18 09:40:00,56.9,56.6,29.57,South,186,7.0,10.0,99,0.00,,,2.41,Wunderground v.1.15,2013-04-18 14:40:00,
2013-04-18 09:42:00,57.1,56.8,29.56,SSW,197,7.0,10.0,99,0.00,,,2.41,Wunderground v.1.15,2013-04-18 14:42:00,
2013-04-18 09:44:00,57.2,56.9,29.57,South,185,6.0,10.0,99,0.00,,,2.41,Wunderground v.1.15,2013-04-18 14:44:00,
2013-04-18 09:47:00,57.4,57.1,29.56,SSW,202,7.0,10.0,99,0.00,,,2.41,Wunderground v.1.15,2013-04-18 14:47:00,
2013-04-18 09:48:00,57.4,57.1,29.55,South,187,7.0,10.0,99,0.00,,,2.41,Wunderground v.1.15,2013-04-18 14:48:00,
2013-04-18 09:49:00,57.5,57.2,29.55,SSE,168,7.0,10.0,99,0.00,,,2.41,Wunderground v.1.15,2013-04-18 14:49:00,
2013-04-18 09:52:00,57.6,57.3,29.54,SSE,158,7.0,7.0,99,0.00,,,2.41,Wunderground v.1.15,2013-04-18 14:52:00,
2013-04-18 09:54:00,57.7,57.4,29.54,South,179,7.0,10.0,99,0.00,,,2.41,Wunderground v.1.15,2013-04-18 14:54:00,
2013-04-18 09:57:00,57.9,57.6,29.53,SE,143,7.0,10.0,99,0.00,,,2.41,Wunderground v.1.15,2013-04-18 14:57:00,
2013-04-18 09:58:00,57.9,57.6,29.53,SSW,197,7.0,10.0,99,0.00,,,2.41,Wunderground v.1.15,2013-04-18 14:58:00,
2013-04-18 09:59:00,58.0,57.7,29.54,South,172,7.0,10.0,99,0.00,,,2.41,Wunderground v.1.15,2013-04-18 14:59:00,
2013-04-18 10:02:00,58.1,57.8,29.56,SSW,212,7.0,7.0,99,0.00,,,2.41,Wunderground v.1.15,2013-04-18 15:02:00,
2013-04-18 10:03:00,58.2,57.9,29.56,SSW,205,8.0,9.0,99,0.00,,,2.41,Wunderground v.1.15,2013-04-18 15:03:00,
2013-04-18 10:05:00,58.3,58.0,29.57,SW,221,8.0,13.0,99,0.00,,,2.41,Wunderground v.1.15,2013-04-18 15:05:00,
2013-04-18 10:07:00,58.3,58.0,29.58,SSW,212,8.0,13.0,99,0.00,,,2.41,Wunderground v.1.15,2013-04-18 15:07:00,
2013-04-18 10:10:00,58.3,58.0,29.58,SW,221,10.0,10.0,99,0.00,,,2.41,Wunderground v.1.15,2013-04-18 15:10:00,
2013-04-18 10:11:00,58.4,58.1,29.58,SSW,207,10.0,10.0,99,0.00,,,2.41,Wunderground v.1.15,2013-04-18 15:11:00,
2013-04-18 10:13:00,58.4,58.1,29.58,SSW,207,11.0,11.0,99,0.00,,,2.41,Wunderground v.1.15,2013-04-18 15:13:00,
2013-04-18 10:15:00,58.4,58.1,29.58,SW,226,11.0,11.0,99,0.00,,,2.41,Wunderground v.1.15,2013-04-18 15:15:00,
2013-04-18 10:16:00,58.5,58.2,29.58,SSW,201,10.0,11.0,99,0.00,,,2.41,Wunderground v.1.15,2013-04-18 15:16:00,
2013-04-18 10:18:00,58.6,58.3,29.58,South,188,10.0,12.0,99,0.00,,,2.41,Wunderground v.1.15,2013-04-18 15:18:00,
2013-04-18 10:20:00,58.8,58.5,29.58,South,176,10.0,15.0,99,0.00,,,2.41,Wunderground v.1.15,2013-04-18 15:20:00,
2013-04-18 10:21:00,58.8,58.5,29.58,South,186,10.0,15.0,99,0.00,,,2.41,Wunderground v.1.15,2013-04-18 15:21:00,
2013-04-18 10:22:00,58.8,58.5,29.57,SSE,160,10.0,15.0,99,0.00,,,2.41,Wunderground v.1.15,2013-04-18 15:22:00,
2013-04-18 10:25:00,58.9,58.6,29.57,South,186,11.0,15.0,99,0.00,,,2.41,Wunderground v.1.15,2013-04-18 15:25:00,
2013-04-18 10:26:00,58.9,58.6,29.58,South,190,12.0,15.0,99,0.00,,,2.41,Wunderground v.1.15,2013-04-18 15:26:00,
2013-04-18 10:27:00,58.9,58.6,29.58,South,170,12.0,15.0,99,0.00,,,2.41,Wunderground v.1.15,2013-04-18 15:27:00,
2013-04-18 10:32:00,59.0,58.7,29.58,SSW,193,10.0,11.0,99,0.00,,,2.41,Wunderground v.1.15,2013-04-18 15:32:00,
2013-04-18 10:33:00,59.0,58.7,29.59,South,183,10.0,11.0,99,0.00,,,2.41,Wunderground v.1.15,2013-04-18 15:33:00,
2013-04-18 10:35:00,59.1,58.8,29.58,South,187,9.0,11.0,99,0.00,,,2.41,Wunderground v.1.15,2013-04-18 15:35:00,
2013-04-18 10:37:00,59.1,58.8,29.58,South,188,9.0,12.0,99,0.00,,,2.41,Wunderground v.1.15,2013-04-18 15:37:00,
2013-04-18 10:41:00,59.2,58.9,29.59,SSE,155,9.0,10.0,99,0.00,,,2.41,Wunderground v.1.15,2013-04-18 15:41:00,
2013-04-18 10:42:00,59.2,58.9,29.59,SSW,200,9.0,10.0,99,0.00,,,2.41,Wunderground v.1.15,2013-04-18 15:42:00,
2013-04-18 10:46:00,59.3,59.0,29.59,SSW,194,9.0,10.0,99,0.00,,,2.41,Wunderground v.1.15,2013-04-18 15:46:00,
2013-04-18 10:47:00,59.3,59.0,29.59,South,174,8.0,10.0,99,0.00,,,2.41,Wunderground v.1.15,2013-04-18 15:47:00,
2013-04-18 10:49:00,59.3,59.3,29.59,South,191,8.0,10.0,100,0.00,,,2.41,Wunderground v.1.15,2013-04-18 15:49:00,
2013-04-18 10:52:00,59.4,59.4,29.59,South,184,7.0,8.0,100,0.00,,,2.41,Wunderground v.1.15,2013-04-18 15:52:00,
2013-04-18 10:54:00,59.5,59.2,29.59,South,187,7.0,8.0,99,0.00,,,2.41,Wunderground v.1.15,2013-04-18 15:54:00,
2013-04-18 10:55:00,59.5,59.5,29.59,SSW,208,7.0,8.0,100,0.00,,,2.41,Wunderground v.1.15,2013-04-18 15:55:00,
2013-04-18 11:00:00,59.6,59.6,29.59,SSW,198,8.0,12.0,100,0.00,,,2.41,Wunderground v.1.15,2013-04-18 16:00:00,
2013-04-18 11:03:00,59.6,59.6,29.59,SSE,168,9.0,12.0,100,0.00,,,2.41,Wunderground v.1.15,2013-04-18 16:03:00,
2013-04-18 11:07:00,59.7,59.4,29.59,South,185,10.0,12.0,99,0.00,,,2.41,Wunderground v.1.15,2013-04-18 16:07:00,
2013-04-18 11:08:00,59.7,59.7,29.59,South,179,10.0,12.0,100,0.00,,,2.41,Wunderground v.1.15,2013-04-18 16:08:00,
2013-04-18 11:09:00,59.7,59.4,29.58,SSE,166,9.0,13.0,99,0.00,,,2.41,Wunderground v.1.15,2013-04-18 16:09:00,
2013-04-18 11:12:00,59.7,59.4,29.58,SSE,160,9.0,13.0,99,0.00,,,2.41,Wunderground v.1.15,2013-04-18 16:12:00,
2013-04-18 11:13:00,59.7,59.4,29.58,SSE,163,9.0,13.0,99,0.00,,,2.41,Wunderground v.1.15,2013-04-18 16:13:00,
2013-04-18 11:17:00,59.8,59.8,29.58,SSE,156,9.0,13.0,100,0.00,,,2.41,Wunderground v.1.15,2013-04-18 16:17:00,
2013-04-18 11:18:00,59.8,59.8,29.58,SSE,163,9.0,13.0,100,0.00,,,2.41,Wunderground v.1.15,2013-04-18 16:18:00,
2013-04-18 11:22:00,59.9,59.9,29.58,SSE,166,9.0,9.0,100,0.00,,,2.42,Wunderground v.1.15,2013-04-18 16:22:00,
2013-04-18 11:26:00,59.9,59.9,29.58,South,170,8.0,12.0,100,0.00,,,2.42,Wunderground v.1.15,2013-04-18 16:26:00,
2013-04-18 11:28:00,60.0,60.0,29.58,SSW,198,7.0,12.0,100,0.00,,,2.42,Wunderground v.1.15,2013-04-18 16:28:00,
2013-04-18 11:30:00,60.0,60.0,29.57,South,169,8.0,9.0,100,0.00,,,2.42,Wunderground v.1.15,2013-04-18 16:30:00,
2013-04-18 11:31:00,60.0,60.0,29.58,SSE,166,8.0,9.0,100,0.07,,,2.43,Wunderground v.1.15,2013-04-18 16:31:00,
2013-04-18 11:35:00,60.0,60.0,29.57,SSE,158,7.0,12.0,100,0.07,,,2.43,Wunderground v.1.15,2013-04-18 16:35:00,
2013-04-18 11:36:00,60.0,60.0,29.57,South,190,7.0,12.0,100,0.07,,,2.43,Wunderground v.1.15,2013-04-18 16:36:00,
2013-04-18 11:38:00,60.0,60.0,29.57,South,176,7.0,12.0,100,0.07,,,2.43,Wunderground v.1.15,2013-04-18 16:38:00,
2013-04-18 11:39:00,60.0,59.7,29.57,SSE,160,7.0,12.0,99,0.08,,,2.44,Wunderground v.1.15,2013-04-18 16:39:00,
2013-04-18 11:41:00,60.1,60.1,29.57,SSW,194,8.0,12.0,100,0.08,,,2.44,Wunderground v.1.15,2013-04-18 16:41:00,
2013-04-18 11:44:00,60.1,60.1,29.57,SSE,148,7.0,12.0,100,0.08,,,2.44,Wunderground v.1.15,2013-04-18 16:44:00,
2013-04-18 11:46:00,60.1,60.1,29.57,SSE,147,8.0,12.0,100,0.07,,,2.44,Wunderground v.1.15,2013-04-18 16:46:00,
2013-04-18 11:48:00,60.1,60.1,29.57,SSE,168,8.0,12.0,100,0.06,,,2.44,Wunderground v.1.15,2013-04-18 16:48:00,
2013-04-18 11:52:00,60.2,60.2,29.57,SSE,166,8.0,11.0,100,0.04,,,2.44,Wunderground v.1.15,2013-04-18 16:52:00,
2013-04-18 11:54:00,60.2,60.2,29.57,South,191,8.0,11.0,100,0.04,,,2.45,Wunderground v.1.15,2013-04-18 16:54:00,
2013-04-18 11:55:00,60.2,60.2,29.57,SSE,163,8.0,11.0,100,0.04,,,2.45,Wunderground v.1.15,2013-04-18 16:55:00,
2013-04-18 11:57:00,60.2,60.2,29.57,South,174,8.0,11.0,100,0.04,,,2.45,Wunderground v.1.15,2013-04-18 16:57:00,
2013-04-18 12:00:00,60.2,60.2,29.57,SE,145,8.0,8.0,100,0.04,,,2.45,Wunderground v.1.15,2013-04-18 17:00:00,
2013-04-18 12:02:00,60.2,60.2,29.56,SSE,165,9.0,11.0,100,0.04,,,2.45,Wunderground v.1.15,2013-04-18 17:02:00,
2013-04-18 12:03:00,60.2,60.2,29.56,SSE,147,9.0,11.0,100,0.04,,,2.45,Wunderground v.1.15,2013-04-18 17:03:00,
2013-04-18 12:06:00,60.3,60.3,29.56,SE,143,10.0,11.0,100,0.05,,,2.46,Wunderground v.1.15,2013-04-18 17:06:00,
2013-04-18 12:07:00,60.3,60.3,29.56,SSE,160,10.0,11.0,100,0.05,,,2.46,Wunderground v.1.15,2013-04-18 17:07:00,
2013-04-18 12:10:00,60.3,60.3,29.56,SE,140,10.0,10.0,100,0.05,,,2.46,Wunderground v.1.15,2013-04-18 17:10:00,
2013-04-18 12:12:00,60.3,60.3,29.56,SSE,159,10.0,10.0,100,0.05,,,2.46,Wunderground v.1.15,2013-04-18 17:12:00,
2013-04-18 12:13:00,60.3,60.3,29.56,SSE,150,10.0,10.0,100,0.08,,,2.47,Wunderground v.1.15,2013-04-18 17:13:00,
2013-04-18 12:14:00,60.3,60.3,29.56,SSE,151,9.0,11.0,100,0.08,,,2.47,Wunderground v.1.15,2013-04-18 17:14:00,
2013-04-18 12:17:00,60.3,60.3,29.56,SSE,166,9.0,12.0,100,0.21,,,2.48,Wunderground v.1.15,2013-04-18 17:17:00,
2013-04-18 12:19:00,60.2,60.2,29.54,ESE,122,10.0,10.0,100,0.22,,,2.49,Wunderground v.1.15,2013-04-18 17:19:00,
2013-04-18 12:23:00,60.1,60.1,29.48,East,83,9.0,10.0,100,0.15,,,2.49,Wunderground v.1.15,2013-04-18 17:23:00,
2013-04-18 12:25:00,60.1,60.1,29.48,East,96,9.0,14.0,100,0.13,,,2.50,Wunderground v.1.15,2013-04-18 17:25:00,
2013-04-18 12:26:00,60.1,60.1,29.47,East,79,9.0,14.0,100,0.13,,,2.50,Wunderground v.1.15,2013-04-18 17:26:00,
2013-04-18 12:28:00,60.1,60.1,29.48,East,86,9.0,14.0,100,0.12,,,2.50,Wunderground v.1.15,2013-04-18 17:28:00,
2013-04-18 12:31:00,60.2,60.2,29.47,ESE,117,10.0,18.0,100,0.07,,,2.50,Wunderground v.1.15,2013-04-18 17:31:00,
2013-04-18 12:33:00,60.1,60.1,29.48,SE,145,10.0,18.0,100,0.06,,,2.50,Wunderground v.1.15,2013-04-18 17:33:00,
2013-04-18 12:34:00,60.2,60.2,29.49,SE,129,10.0,18.0,100,0.05,,,2.50,Wunderground v.1.15,2013-04-18 17:34:00,
2013-04-18 12:37:00,60.2,60.2,29.48,SE,137,10.0,18.0,100,0.05,,,2.50,Wunderground v.1.15,2013-04-18 17:37:00,
2013-04-18 12:38:00,60.2,60.2,29.49,SE,129,10.0,18.0,100,0.04,,,2.50,Wunderground v.1.15,2013-04-18 17:38:00,
2013-04-18 12:39:00,60.2,60.2,29.49,SE,127,10.0,18.0,100,0.04,,,2.50,Wunderground v.1.15,2013-04-18 17:39:00,
2013-04-18 12:40:00,60.3,60.3,29.49,SSE,148,10.0,10.0,100,0.04,,,2.50,Wunderground v.1.15,2013-04-18 17:40:00,
2013-04-18 12:43:00,60.3,60.3,29.50,SSE,159,11.0,15.0,100,0.00,,,2.50,Wunderground v.1.15,2013-04-18 17:43:00,
2013-04-18 12:44:00,60.3,60.3,29.51,SE,146,11.0,15.0,100,0.00,,,2.50,Wunderground v.1.15,2013-04-18 17:44:00,
2013-04-18 12:46:00,60.4,60.4,29.52,South,184,12.0,17.0,100,0.00,,,2.50,Wunderground v.1.15,2013-04-18 17:46:00,
2013-04-18 12:48:00,60.4,60.4,29.52,SSE,161,13.0,17.0,100,0.00,,,2.50,Wunderground v.1.15,2013-04-18 17:48:00,
2013-04-18 12:50:00,60.4,60.4,29.52,SSE,154,13.0,14.0,100,0.00,,,2.50,Wunderground v.1.15,2013-04-18 17:50:00,
2013-04-18 12:51:00,60.4,60.4,29.51,SE,130,13.0,14.0,100,0.00,,,2.50,Wunderground v.1.15,2013-04-18 17:51:00,
2013-04-18 12:54:00,60.4,60.4,29.51,SE,142,12.0,14.0,100,0.00,,,2.50,Wunderground v.1.15,2013-04-18 17:54:00,
2013-04-18 12:55:00,60.4,60.4,29.51,SSE,163,12.0,14.0,100,0.00,,,2.50,Wunderground v.1.15,2013-04-18 17:55:00,
2013-04-18 12:59:00,60.3,60.3,29.50,South,176,12.0,16.0,100,0.00,,,2.50,Wunderground v.1.15,2013-04-18 17:59:00,
2013-04-18 13:01:00,60.3,60.3,29.52,South,185,13.0,13.0,100,0.00,,,2.50,Wunderground v.1.15,2013-04-18 18:01:00,
2013-04-18 13:04:00,60.4,60.4,29.50,SSE,156,14.0,20.0,100,0.00,,,2.50,Wunderground v.1.15,2013-04-18 18:04:00,
2013-04-18 13:08:00,60.3,60.3,29.42,SE,141,14.0,20.0,100,0.00,,,2.50,Wunderground v.1.15,2013-04-18 18:08:00,
2013-04-18 13:09:00,60.2,60.2,29.43,East,101,14.0,20.0,100,0.00,,,2.50,Wunderground v.1.15,2013-04-18 18:09:00,
2013-04-18 13:12:00,60.2,60.2,29.47,SSE,148,13.0,17.0,100,0.00,,,2.50,Wunderground v.1.15,2013-04-18 18:12:00,
2013-04-18 13:13:00,60.3,60.3,29.49,South,185,13.0,17.0,100,0.00,,,2.50,Wunderground v.1.15,2013-04-18 18:13:00,
2013-04-18 13:14:00,60.3,60.3,29.50,South,177,12.0,17.0,100,0.00,,,2.50,Wunderground v.1.15,2013-04-18 18:14:00,
2013-04-18 13:15:00,60.3,60.3,29.50,SSE,156,12.0,17.0,100,0.00,,,2.50,Wunderground v.1.15,2013-04-18 18:15:00,
2013-04-18 13:16:00,60.3,60.3,29.50,South,181,12.0,17.0,100,0.00,,,2.50,Wunderground v.1.15,2013-04-18 18:16:00,
2013-04-18 13:21:00,60.4,60.4,29.49,South,172,13.0,13.0,100,0.00,,,2.50,Wunderground v.1.15,2013-04-18 18:21:00,
2013-04-18 13:22:00,60.4,60.4,29.49,SSE,150,13.0,13.0,100,0.00,,,2.50,Wunderground v.1.15,2013-04-18 18:22:00,
2013-04-18 13:23:00,60.5,60.5,29.49,SSE,155,13.0,13.0,100,0.00,,,2.50,Wunderground v.1.15,2013-04-18 18:23:00,
2013-04-18 13:25:00,60.5,60.5,29.49,SSE,156,12.0,15.0,100,0.00,,,2.50,Wunderground v.1.15,2013-04-18 18:25:00,
2013-04-18 13:27:00,60.4,60.4,29.48,ESE,113,13.0,15.0,100,0.00,,,2.50,Wunderground v.1.15,2013-04-18 18:27:00,
2013-04-18 13:28:00,60.5,60.5,29.48,SE,143,12.0,15.0,100,0.00,,,2.50,Wunderground v.1.15,2013-04-18 18:28:00,
2013-04-18 13:29:00,60.5,60.5,29.48,SE,132,12.0,15.0,100,0.00,,,2.50,Wunderground v.1.15,2013-04-18 18:29:00,
2013-04-18 13:30:00,60.5,60.5,29.48,ESE,123,12.0,15.0,100,0.00,,,2.50,Wunderground v.1.15,2013-04-18 18:30:00,
2013-04-18 13:34:00,60.4,60.4,29.47,ESE,109,12.0,17.0,100,0.00,,,2.50,Wunderground v.1.15,2013-04-18 18:34:00,
2013-04-18 13:35:00,60.4,60.4,29.47,SE,127,12.0,17.0,100,0.00,,,2.50,Wunderground v.1.15,2013-04-18 18:35:00,
2013-04-18 13:37:00,60.5,60.5,29.46,SE,129,12.0,17.0,100,0.00,,,2.50,Wunderground v.1.15,2013-04-18 18:37:00,
2013-04-18 13:43:00,60.5,60.5,29.48,South,174,12.0,14.0,100,0.00,,,2.50,Wunderground v.1.15,2013-04-18 18:43:00,
2013-04-18 13:44:00,60.5,60.5,29.48,SE,146,12.0,14.0,100,0.00,,,2.50,Wunderground v.1.15,2013-04-18 18:44:00,
2013-04-18 13:48:00,60.5,60.5,29.48,SE,143,10.0,14.0,100,0.00,,,2.50,Wunderground v.1.15,2013-04-18 18:48:00,
2013-04-18 13:50:00,60.5,60.5,29.49,SSE,160,10.0,10.0,100,0.00,,,2.50,Wunderground v.1.15,2013-04-18 18:50:00,
2013-04-18 13:51:00,60.5,60.5,29.50,South,191,10.0,10.0,100,0.00,,,2.50,Wunderground v.1.15,2013-04-18 18:51:00,
2013-04-18 13:53:00,60.5,60.5,29.51,SSE,155,10.0,15.0,100,0.00,,,2.50,Wunderground v.1.15,2013-04-18 18:53:00,
2013-04-18 13:54:00,60.5,60.2,29.51,SSE,163,10.0,15.0,99,0.00,,,2.50,Wunderground v.1.15,2013-04-18 18:54:00,
2013-04-18 13:55:00,60.6,60.6,29.51,SSE,162,11.0,15.0,100,0.00,,,2.50,Wunderground v.1.15,2013-04-18 18:55:00,
2013-04-18 13:56:00,60.6,60.6,29.51,SSE,159,11.0,15.0,100,0.00,,,2.50,Wunderground v.1.15,2013-04-18 18:56:00,
2013-04-18 13:58:00,60.6,60.6,29.51,SSE,155,11.0,15.0,100,0.00,,,2.50,Wunderground v.1.15,2013-04-18 18:58:00,
2013-04-18 14:00:00,60.6,60.6,29.52,South,169,12.0,12.0,100,0.00,,,2.50,Wunderground v.1.15,2013-04-18 19:00:00,
2013-04-18 14:01:00,60.7,60.7,29.52,SE,143,12.0,12.0,100,0.00,,,2.50,Wunderground v.1.15,2013-04-18 19:01:00,
2013-04-18 14:02:00,60.7,60.7,29.52,South,170,12.0,12.0,100,0.00,,,2.50,Wunderground v.1.15,2013-04-18 19:02:00,
2013-04-18 14:04:00,60.7,60.7,29.52,SSE,162,12.0,12.0,100,0.00,,,2.50,Wunderground v.1.15,2013-04-18 19:04:00,
2013-04-18 14:06:00,60.8,60.8,29.52,SE,136,12.0,12.0,100,0.00,,,2.50,Wunderground v.1.15,2013-04-18 19:06:00,
2013-04-18 14:07:00,60.8,60.5,29.52,SSE,159,12.0,12.0,99,0.00,,,2.50,Wunderground v.1.15,2013-04-18 19:07:00,
2013-04-18 14:08:00,60.8,60.8,29.52,SSW,194,12.0,13.0,100,0.00,,,2.50,Wunderground v.1.15,2013-04-18 19:08:00,
2013-04-18 14:09:00,60.9,60.9,29.52,SSE,160,12.0,19.0,100,0.00,,,2.50,Wunderground v.1.15,2013-04-18 19:09:00,
2013-04-18 14:11:00,60.9,60.9,29.52,SSE,161,12.0,14.0,100,0.00,,,2.50,Wunderground v.1.15,2013-04-18 19:11:00,
2013-04-18 14:13:00,61.0,61.0,29.51,SE,131,13.0,17.0,100,0.00,,,2.50,Wunderground v.1.15,2013-04-18 19:13:00,
2013-04-18 14:14:00,61.1,61.1,29.52,SE,141,13.0,17.0,100,0.00,,,2.50,Wunderground v.1.15,2013-04-18 19:14:00,
2013-04-18 14:16:00,61.1,60.8,29.52,SE,143,13.0,17.0,99,0.00,,,2.50,Wunderground v.1.15,2013-04-18 19:16:00,
2013-04-18 14:17:00,61.1,61.1,29.51,SE,145,13.0,17.0,100,0.00,,,2.50,Wunderground v.1.15,2013-04-18 19:17:00,
2013-04-18 14:18:00,61.1,61.1,29.51,SSE,167,13.0,17.0,100,0.00,,,2.50,Wunderground v.1.15,2013-04-18 19:18:00,
2013-04-18 14:20:00,61.1,61.1,29.51,SE,131,13.0,13.0,100,0.00,,,2.50,Wunderground v.1.15,2013-04-18 19:20:00,
2013-04-18 14:22:00,61.2,60.9,29.51,South,187,13.0,16.0,99,0.00,,,2.50,Wunderground v.1.15,2013-04-18 19:22:00,
2013-04-18 14:24:00,61.2,60.9,29.51,SSE,153,12.0,16.0,99,0.00,,,2.50,Wunderground v.1.15,2013-04-18 19:24:00,
2013-04-18 14:26:00,61.2,60.9,29.51,SSE,152,13.0,16.0,99,0.00,,,2.50,Wunderground v.1.15,2013-04-18 19:26:00,
2013-04-18 14:30:00,61.3,61.0,29.50,SSE,157,12.0,12.0,99,0.00,,,2.50,Wunderground v.1.15,2013-04-18 19:30:00,
2013-04-18 14:31:00,61.3,61.0,29.50,SSE,162,12.0,12.0,99,0.00,,,2.50,Wunderground v.1.15,2013-04-18 19:31:00,
2013-04-18 14:33:00,61.3,61.0,29.50,SSE,168,11.0,12.0,99,0.00,,,2.50,Wunderground v.1.15,2013-04-18 19:33:00,
2013-04-18 14:35:00,61.4,61.4,29.50,SSE,155,11.0,12.0,100,0.00,,,2.50,Wunderground v.1.15,2013-04-18 19:35:00,
2013-04-18 14:38:00,61.4,61.1,29.49,SE,146,10.0,15.0,99,0.00,,,2.50,Wunderground v.1.15,2013-04-18 19:38:00,
2013-04-18 14:39:00,61.4,61.1,29.49,SE,139,10.0,15.0,99,0.00,,,2.50,Wunderground v.1.15,2013-04-18 19:39:00,
2013-04-18 14:40:00,61.4,61.1,29.49,SSE,148,11.0,11.0,99,0.00,,,2.50,Wunderground v.1.15,2013-04-18 19:40:00,
2013-04-18 14:41:00,61.4,61.1,29.49,SSE,160,10.0,11.0,99,0.00,,,2.50,Wunderground v.1.15,2013-04-18 19:41:00,
2013-04-18 14:42:00,61.4,61.1,29.49,SSE,166,11.0,11.0,99,0.00,,,2.50,Wunderground v.1.15,2013-04-18 19:42:00,
2013-04-18 14:44:00,61.5,61.2,29.49,SSE,148,11.0,13.0,99,0.00,,,2.50,Wunderground v.1.15,2013-04-18 19:44:00,
2013-04-18 14:46:00,61.5,61.2,29.49,South,174,12.0,13.0,99,0.00,,,2.50,Wunderground v.1.15,2013-04-18 19:46:00,
2013-04-18 14:49:00,61.6,61.3,29.49,SSE,148,11.0,13.0,99,0.00,,,2.50,Wunderground v.1.15,2013-04-18 19:49:00,
2013-04-18 14:52:00,61.6,61.3,29.48,SSE,163,11.0,16.0,99,0.00,,,2.50,Wunderground v.1.15,2013-04-18 19:52:00,
2013-04-18 14:53:00,61.6,61.3,29.48,South,172,11.0,16.0,99,0.00,,,2.50,Wunderground v.1.15,2013-04-18 19:53:00,
2013-04-18 14:54:00,61.6,61.3,29.48,SSE,159,11.0,16.0,99,0.00,,,2.50,Wunderground v.1.15,2013-04-18 19:54:00,
2013-04-18 14:55:00,61.5,61.2,29.48,SSE,167,11.0,19.0,99,0.00,,,2.50,Wunderground v.1.15,2013-04-18 19:55:00,
2013-04-18 14:57:00,61.5,61.2,29.47,SE,142,12.0,19.0,99,0.00,,,2.50,Wunderground v.1.15,2013-04-18 19:57:00,
2013-04-18 14:59:00,61.6,61.3,29.47,SSE,148,12.0,19.0,99,0.00,,,2.50,Wunderground v.1.15,2013-04-18 19:59:00,
2013-04-18 15:05:00,61.7,61.4,29.47,SE,146,12.0,14.0,99,0.00,,,2.50,Wunderground v.1.15,2013-04-18 20:05:00,
2013-04-18 15:06:00,61.7,61.4,29.47,South,169,11.0,14.0,99,0.00,,,2.50,Wunderground v.1.15,2013-04-18 20:06:00,
2013-04-18 15:09:00,61.7,61.4,29.47,South,179,11.0,14.0,99,0.00,,,2.50,Wunderground v.1.15,2013-04-18 20:09:00,
2013-04-18 15:11:00,61.7,61.4,29.47,SSE,150,10.0,15.0,99,0.00,,,2.50,Wunderground v.1.15,2013-04-18 20:11:00,
2013-04-18 15:12:00,61.7,61.4,29.46,SSE,150,11.0,15.0,99,0.00,,,2.50,Wunderground v.1.15,2013-04-18 20:12:00,
2013-04-18 15:15:00,61.7,61.4,29.46,SSE,148,11.0,15.0,99,0.00,,,2.50,Wunderground v.1.15,2013-04-18 20:15:00,
2013-04-18 15:16:00,61.8,61.5,29.45,SE,143,11.0,15.0,99,0.00,,,2.50,Wunderground v.1.15,2013-04-18 20:16:00,
2013-04-18 15:20:00,61.8,61.5,29.44,SSE,165,11.0,16.0,99,0.00,,,2.50,Wunderground v.1.15,2013-04-18 20:20:00,
2013-04-18 15:21:00,61.8,61.5,29.44,South,169,12.0,16.0,99,0.00,,,2.50,Wunderground v.1.15,2013-04-18 20:21:00,
2013-04-18 15:22:00,61.9,61.6,29.44,SSE,160,12.0,17.0,99,0.00,,,2.50,Wunderground v.1.15,2013-04-18 20:22:00,
2013-04-18 15:24:00,62.0,61.7,29.44,South,187,12.0,23.0,99,0.00,,,2.50,Wunderground v.1.15,2013-04-18 20:24:00,
2013-04-18 15:27:00,62.1,61.5,29.44,SSE,162,14.0,23.0,98,0.00,,,2.50,Wunderground v.1.15,2013-04-18 20:27:00,
2013-04-18 15:28:00,62.1,61.5,29.44,SE,145,15.0,23.0,98,0.00,,,2.50,Wunderground v.1.15,2013-04-18 20:28:00,
2013-04-18 15:29:00,62.1,61.5,29.45,SSE,163,15.0,23.0,98,0.00,,,2.50,Wunderground v.1.15,2013-04-18 20:29:00,
2013-04-18 15:30:00,62.1,61.2,29.45,South,170,15.0,15.0,97,0.00,,,2.50,Wunderground v.1.15,2013-04-18 20:30:00,
2013-04-18 15:33:00,62.1,61.2,29.45,South,179,14.0,16.0,97,0.00,,,2.50,Wunderground v.1.15,2013-04-18 20:33:00,
2013-04-18 15:34:00,62.1,61.2,29.46,SSE,152,14.0,16.0,97,0.00,,,2.50,Wunderground v.1.15,2013-04-18 20:34:00,
2013-04-18 15:36:00,62.1,61.2,29.45,SSE,168,14.0,16.0,97,0.00,,,2.50,Wunderground v.1.15,2013-04-18 20:36:00,
2013-04-18 15:37:00,62.0,61.1,29.45,South,179,13.0,16.0,97,0.00,,,2.50,Wunderground v.1.15,2013-04-18 20:37:00,
2013-04-18 15:38:00,62.0,61.1,29.46,South,173,12.0,16.0,97,0.00,,,2.50,Wunderground v.1.15,2013-04-18 20:38:00,
2013-04-18 15:41:00,61.9,61.0,29.46,SSE,165,12.0,14.0,97,0.00,,,2.50,Wunderground v.1.15,2013-04-18 20:41:00,
2013-04-18 15:42:00,61.9,61.0,29.46,South,188,12.0,15.0,97,0.00,,,2.50,Wunderground v.1.15,2013-04-18 20:42:00,
2013-04-18 15:47:00,62.0,61.1,29.45,South,177,14.0,17.0,97,0.00,,,2.50,Wunderground v.1.15,2013-04-18 20:47:00,
2013-04-18 15:49:00,62.0,61.1,29.45,South,181,15.0,17.0,97,0.00,,,2.50,Wunderground v.1.15,2013-04-18 20:49:00,
2013-04-18 15:50:00,62.0,61.1,29.43,SE,136,14.0,14.0,97,0.00,,,2.50,Wunderground v.1.15,2013-04-18 20:50:00,
2013-04-18 15:51:00,62.0,61.1,29.42,SSE,163,14.0,15.0,97,0.00,,,2.50,Wunderground v.1.15,2013-04-18 20:51:00,
2013-04-18 15:54:00,61.9,61.0,29.42,SSE,150,13.0,15.0,97,0.00,,,2.50,Wunderground v.1.15,2013-04-18 20:54:00,
2013-04-18 15:55:00,62.0,61.1,29.42,South,184,13.0,15.0,97,0.00,,,2.50,Wunderground v.1.15,2013-04-18 20:55:00,
2013-04-18 16:00:00,61.9,61.0,29.44,South,188,12.0,15.0,97,0.00,,,2.50,Wunderground v.1.15,2013-04-18 21:00:00,
2013-04-18 16:03:00,61.9,61.0,29.46,SSW,198,12.0,15.0,97,0.00,,,2.50,Wunderground v.1.15,2013-04-18 21:03:00,
2013-04-18 16:04:00,61.9,61.0,29.47,SW,222,12.0,18.0,97,0.00,,,2.50,Wunderground v.1.15,2013-04-18 21:04:00,
2013-04-18 16:08:00,58.9,56.0,29.49,WSW,250,16.0,30.0,90,0.25,,,2.52,Wunderground v.1.15,2013-04-18 21:08:00,
2013-04-18 16:09:00,57.5,54.9,29.50,WSW,252,19.0,20.0,91,0.14,,,2.52,Wunderground v.1.15,2013-04-18 21:09:00,
2013-04-18 16:13:00,55.7,54.3,29.51,WSW,242,23.0,26.0,95,0.07,,,2.52,Wunderground v.1.15,2013-04-18 21:13:00,
2013-04-18 16:15:00,54.9,53.5,29.52,WSW,242,23.0,26.0,95,0.06,,,2.52,Wunderground v.1.15,2013-04-18 21:15:00,
2013-04-18 16:17:00,54.4,53.3,29.52,WSW,242,23.0,26.0,96,0.05,,,2.52,Wunderground v.1.15,2013-04-18 21:17:00,
2013-04-18 16:18:00,54.2,53.1,29.52,WSW,252,22.0,26.0,96,0.05,,,2.52,Wunderground v.1.15,2013-04-18 21:18:00,
2013-04-18 16:19:00,54.0,52.9,29.51,WSW,239,22.0,22.0,96,0.04,,,2.52,Wunderground v.1.15,2013-04-18 21:19:00,
2013-04-18 16:21:00,53.7,52.9,29.51,SW,235,22.0,22.0,97,0.04,,,2.52,Wunderground v.1.15,2013-04-18 21:21:00,
2013-04-18 16:22:00,53.6,52.8,29.51,WSW,252,21.0,22.0,97,0.00,,,2.52,Wunderground v.1.15,2013-04-18 21:22:00,
2013-04-18 16:23:00,53.6,52.8,29.51,WSW,256,20.0,22.0,97,0.00,,,2.52,Wunderground v.1.15,2013-04-18 21:23:00,
2013-04-18 16:28:00,53.3,52.5,29.50,West,260,18.0,22.0,97,0.00,,,2.52,Wunderground v.1.15,2013-04-18 21:28:00,
2013-04-18 16:29:00,53.3,52.8,29.50,WSW,256,17.0,22.0,98,0.00,,,2.52,Wunderground v.1.15,2013-04-18 21:29:00,
2013-04-18 16:30:00,53.2,52.7,29.50,WSW,252,16.0,21.0,98,0.00,,,2.52,Wunderground v.1.15,2013-04-18 21:30:00,
2013-04-18 16:33:00,53.0,52.5,29.50,WSW,250,16.0,21.0,98,0.00,,,2.52,Wunderground v.1.15,2013-04-18 21:33:00,
2013-04-18 16:34:00,53.1,52.6,29.49,WSW,243,16.0,21.0,98,0.00,,,2.52,Wunderground v.1.15,2013-04-18 21:34:00,
2013-04-18 16:35:00,53.0,52.5,29.50,SW,235,15.0,21.0,98,0.00,,,2.52,Wunderground v.1.15,2013-04-18 21:35:00,
2013-04-18 16:39:00,52.5,51.7,29.47,WSW,239,15.0,21.0,97,0.00,,,2.52,Wunderground v.1.15,2013-04-18 21:39:00,
2013-04-18 16:40:00,52.4,51.6,29.48,SW,233,16.0,18.0,97,0.00,,,2.52,Wunderground v.1.15,2013-04-18 21:40:00,
2013-04-18 16:41:00,52.3,51.5,29.50,SW,235,15.0,18.0,97,0.00,,,2.52,Wunderground v.1.15,2013-04-18 21:41:00,
2013-04-18 16:42:00,52.2,51.4,29.51,WSW,239,15.0,20.0,97,0.00,,,2.52,Wunderground v.1.15,2013-04-18 21:42:00,
2013-04-18 16:45:00,52.0,51.2,29.49,WSW,240,16.0,20.0,97,0.00,,,2.52,Wunderground v.1.15,2013-04-18 21:45:00,
2013-04-18 16:48:00,51.6,50.8,29.50,WSW,255,17.0,22.0,97,0.00,,,2.52,Wunderground v.1.15,2013-04-18 21:48:00,
2013-04-18 16:50:00,51.4,50.6,29.50,WSW,239,18.0,23.0,97,0.00,,,2.52,Wunderground v.1.15,2013-04-18 21:50:00,
2013-04-18 16:53:00,51.1,50.3,29.50,WSW,256,18.0,23.0,97,0.00,,,2.52,Wunderground v.1.15,2013-04-18 21:53:00,
2013-04-18 16:55:00,50.9,50.1,29.51,WSW,237,19.0,23.0,97,0.00,,,2.52,Wunderground v.1.15,2013-04-18 21:55:00,
2013-04-18 16:56:00,50.8,50.0,29.51,SW,225,20.0,23.0,97,0.00,,,2.52,Wunderground v.1.15,2013-04-18 21:56:00,
2013-04-18 16:58:00,50.7,49.9,29.51,WSW,257,20.0,23.0,97,0.00,,,2.52,Wunderground v.1.15,2013-04-18 21:58:00,
2013-04-18 17:02:00,50.6,49.8,29.51,WSW,245,18.0,19.0,97,0.00,,,2.52,Wunderground v.1.15,2013-04-18 22:02:00,
2013-04-18 17:03:00,50.6,49.8,29.51,WSW,243,17.0,19.0,97,0.00,,,2.52,Wunderground v.1.15,2013-04-18 22:03:00,
2013-04-18 17:06:00,50.4,49.6,29.51,WSW,239,16.0,23.0,97,0.00,,,2.52,Wunderground v.1.15,2013-04-18 22:06:00,
2013-04-18 17:08:00,50.2,49.4,29.51,WSW,240,16.0,23.0,97,0.00,,,2.52,Wunderground v.1.15,2013-04-18 22:08:00,
2013-04-18 17:09:00,50.2,49.4,29.52,WSW,242,16.0,23.0,97,0.00,,,2.52,Wunderground v.1.15,2013-04-18 22:09:00,
2013-04-18 17:10:00,50.0,49.2,29.52,West,263,17.0,22.0,97,0.00,,,2.52,Wunderground v.1.15,2013-04-18 22:10:00,
2013-04-18 17:11:00,49.9,49.1,29.51,West,262,18.0,22.0,97,0.00,,,2.52,Wunderground v.1.15,2013-04-18 22:11:00,
2013-04-18 17:13:00,49.8,49.0,29.51,WSW,248,18.0,22.0,97,0.00,,,2.52,Wunderground v.1.15,2013-04-18 22:13:00,
2013-04-18 17:15:00,49.7,48.9,29.51,WSW,249,18.0,22.0,97,0.00,,,2.52,Wunderground v.1.15,2013-04-18 22:15:00,
2013-04-18 17:17:00,49.4,48.6,29.51,WSW,252,18.0,22.0,97,0.00,,,2.52,Wunderground v.1.15,2013-04-18 22:17:00,
2013-04-18 17:18:00,49.4,48.6,29.51,WSW,239,19.0,22.0,97,0.00,,,2.52,Wunderground v.1.15,2013-04-18 22:18:00,
2013-04-18 17:19:00,49.3,48.5,29.51,WSW,255,19.0,26.0,97,0.00,,,2.52,Wunderground v.1.15,2013-04-18 22:19:00,
2013-04-18 17:21:00,49.2,48.4,29.51,WSW,248,19.0,30.0,97,0.00,,,2.52,Wunderground v.1.15,2013-04-18 22:21:00,
2013-04-18 17:25:00,49.0,48.2,29.51,West,262,20.0,30.0,97,0.00,,,2.52,Wunderground v.1.15,2013-04-18 22:25:00,
2013-04-18 17:26:00,49.0,48.2,29.52,WSW,250,21.0,30.0,97,0.00,,,2.52,Wunderground v.1.15,2013-04-18 22:26:00,
2013-04-18 17:29:00,48.9,48.1,29.51,WSW,246,20.0,30.0,97,0.00,,,2.52,Wunderground v.1.15,2013-04-18 22:29:00,
2013-04-18 17:30:00,48.9,48.1,29.51,WSW,253,20.0,20.0,97,0.00,,,2.52,Wunderground v.1.15,2013-04-18 22:30:00,
2013-04-18 17:34:00,48.8,48.0,29.52,WSW,242,18.0,23.0,97,0.00,,,2.52,Wunderground v.1.15,2013-04-18 22:34:00,
2013-04-18 17:35:00,48.8,48.0,29.52,SW,233,19.0,23.0,97,0.00,,,2.52,Wunderground v.1.15,2013-04-18 22:35:00,
2013-04-18 17:36:00,48.8,48.0,29.52,West,259,18.0,23.0,97,0.00,,,2.52,Wunderground v.1.15,2013-04-18 22:36:00,
2013-04-18 17:37:00,48.7,47.9,29.52,WSW,245,18.0,23.0,97,0.00,,,2.52,Wunderground v.1.15,2013-04-18 22:37:00,
2013-04-18 17:40:00,48.7,47.9,29.52,WSW,242,18.0,18.0,97,0.00,,,2.52,Wunderground v.1.15,2013-04-18 22:40:00,
2013-04-18 17:41:00,48.6,47.5,29.52,West,259,18.0,18.0,96,0.00,,,2.52,Wunderground v.1.15,2013-04-18 22:41:00,
2013-04-18 17:42:00,48.5,47.4,29.52,WSW,239,19.0,19.0,96,0.00,,,2.52,Wunderground v.1.15,2013-04-18 22:42:00,
2013-04-18 17:46:00,48.4,47.3,29.53,WSW,245,18.0,24.0,96,0.00,,,2.52,Wunderground v.1.15,2013-04-18 22:46:00,
2013-04-18 17:47:00,48.4,47.0,29.53,SW,219,18.0,24.0,95,0.00,,,2.52,Wunderground v.1.15,2013-04-18 22:47:00,
2013-04-18 17:49:00,48.3,47.2,29.54,WSW,249,18.0,24.0,96,0.00,,,2.52,Wunderground v.1.15,2013-04-18 22:49:00,
2013-04-18 17:52:00,48.1,46.5,29.54,WSW,243,18.0,22.0,94,0.00,,,2.52,Wunderground v.1.15,2013-04-18 22:52:00,
2013-04-18 17:54:00,48.1,46.5,29.54,West,264,19.0,22.0,94,0.00,,,2.52,Wunderground v.1.15,2013-04-18 22:54:00,
2013-04-18 17:55:00,48.0,46.4,29.54,SW,236,19.0,22.0,94,0.00,,,2.52,Wunderground v.1.15,2013-04-18 22:55:00,
2013-04-18 17:56:00,48.0,46.1,29.54,West,266,19.0,22.0,93,0.00,,,2.52,Wunderground v.1.15,2013-04-18 22:56:00,
2013-04-18 17:59:00,47.9,46.0,29.54,West,259,19.0,24.0,93,0.00,,,2.52,Wunderground v.1.15,2013-04-18 22:59:00,
2013-04-18 18:00:00,47.9,46.0,29.54,WSW,248,20.0,20.0,93,0.00,,,2.52,Wunderground v.1.15,2013-04-18 23:00:00,
2013-04-18 18:01:00,47.9,46.0,29.54,WSW,252,19.0,22.0,93,0.00,,,2.52,Wunderground v.1.15,2013-04-18 23:01:00,
2013-04-18 18:04:00,47.7,45.5,29.53,WSW,255,19.0,22.0,92,0.00,,,2.52,Wunderground v.1.15,2013-04-18 23:04:00,
2013-04-18 18:06:00,47.6,45.4,29.54,West,259,20.0,22.0,92,0.00,,,2.52,Wunderground v.1.15,2013-04-18 23:06:00,
2013-04-18 18:08:00,47.5,45.3,29.54,WSW,256,20.0,22.0,92,0.00,,,2.52,Wunderground v.1.15,2013-04-18 23:08:00,
2013-04-18 18:09:00,47.4,45.2,29.55,WSW,255,19.0,22.0,92,0.00,,,2.52,Wunderground v.1.15,2013-04-18 23:09:00,
2013-04-18 18:12:00,47.3,45.4,29.56,WSW,238,18.0,19.0,93,0.00,,,2.52,Wunderground v.1.15,2013-04-18 23:12:00,
2013-04-18 18:13:00,47.3,45.4,29.56,SW,224,17.0,19.0,93,0.00,,,2.52,Wunderground v.1.15,2013-04-18 23:13:00,
2013-04-18 18:14:00,47.3,45.4,29.57,WSW,256,17.0,19.0,93,0.00,,,2.52,Wunderground v.1.15,2013-04-18 23:14:00,
2013-04-18 18:16:00,47.3,45.4,29.57,SW,236,15.0,19.0,93,0.00,,,2.52,Wunderground v.1.15,2013-04-18 23:16:00,
2013-04-18 18:18:00,47.3,45.1,29.57,WSW,244,14.0,21.0,92,0.00,,,2.52,Wunderground v.1.15,2013-04-18 23:18:00,
2013-04-18 18:19:00,47.2,45.0,29.57,WSW,246,14.0,21.0,92,0.00,,,2.52,Wunderground v.1.15,2013-04-18 23:19:00,
2013-04-18 18:20:00,47.2,45.0,29.57,WSW,253,14.0,14.0,92,0.00,,,2.52,Wunderground v.1.15,2013-04-18 23:20:00,
2013-04-18 18:23:00,47.2,45.0,29.55,WSW,257,15.0,17.0,92,0.00,,,2.52,Wunderground v.1.15,2013-04-18 23:23:00,
2013-04-18 18:24:00,47.1,44.9,29.55,West,262,15.0,17.0,92,0.00,,,2.52,Wunderground v.1.15,2013-04-18 23:24:00,
2013-04-18 18:25:00,47.1,44.9,29.56,WSW,249,14.0,17.0,92,0.00,,,2.52,Wunderground v.1.15,2013-04-18 23:25:00,
2013-04-18 18:27:00,47.0,44.8,29.56,West,263,14.0,21.0,92,0.00,,,2.52,Wunderground v.1.15,2013-04-18 23:27:00,
2013-04-18 18:30:00,46.9,44.7,29.56,WSW,242,14.0,14.0,92,0.00,,,2.52,Wunderground v.1.15,2013-04-18 23:30:00,
2013-04-18 18:31:00,46.8,44.6,29.56,WSW,240,14.0,14.0,92,0.00,,,2.52,Wunderground v.1.15,2013-04-18 23:31:00,
2013-04-18 18:32:00,46.8,44.6,29.57,WSW,239,15.0,19.0,92,0.00,,,2.52,Wunderground v.1.15,2013-04-18 23:32:00,
2013-04-18 18:34:00,46.8,44.6,29.57,WSW,255,15.0,19.0,92,0.00,,,2.52,Wunderground v.1.15,2013-04-18 23:34:00,
2013-04-18 18:36:00,46.8,44.3,29.57,WSW,255,16.0,20.0,91,0.00,,,2.52,Wunderground v.1.15,2013-04-18 23:36:00,
2013-04-18 18:37:00,46.8,44.3,29.57,WSW,253,16.0,20.0,91,0.00,,,2.52,Wunderground v.1.15,2013-04-18 23:37:00,
2013-04-18 18:39:00,46.8,44.3,29.57,WSW,239,16.0,20.0,91,0.00,,,2.52,Wunderground v.1.15,2013-04-18 23:39:00,
2013-04-18 18:41:00,46.7,44.2,29.57,WSW,250,15.0,15.0,91,0.00,,,2.52,Wunderground v.1.15,2013-04-18 23:41:00,
2013-04-18 18:44:00,46.7,44.2,29.57,WSW,257,14.0,15.0,91,0.00,,,2.52,Wunderground v.1.15,2013-04-18 23:44:00,
2013-04-18 18:48:00,46.6,43.5,29.56,WSW,250,14.0,17.0,89,0.00,,,2.52,Wunderground v.1.15,2013-04-18 23:48:00,
2013-04-18 18:49:00,46.5,43.4,29.56,WSW,248,14.0,17.0,89,0.00,,,2.52,Wunderground v.1.15,2013-04-18 23:49:00,
2013-04-18 18:50:00,46.5,43.7,29.56,WSW,245,14.0,18.0,90,0.00,,,2.52,Wunderground v.1.15,2013-04-18 23:50:00,
2013-04-18 18:53:00,46.5,43.4,29.56,West,260,15.0,19.0,89,0.00,,,2.52,Wunderground v.1.15,2013-04-18 23:53:00,
2013-04-18 18:55:00,46.4,43.3,29.56,WSW,252,16.0,19.0,89,0.00,,,2.52,Wunderground v.1.15,2013-04-18 23:55:00,
2013-04-18 18:56:00,46.4,43.3,29.57,WSW,249,16.0,19.0,89,0.00,,,2.52,Wunderground v.1.15,2013-04-18 23:56:00,
2013-04-18 19:00:00,46.3,42.9,29.57,WSW,249,16.0,20.0,88,0.00,,,2.52,Wunderground v.1.15,2013-04-19 00:00:00,
2013-04-18 19:02:00,46.3,42.9,29.57,WSW,255,16.0,20.0,88,0.00,,,2.52,Wunderground v.1.15,2013-04-19 00:02:00,
2013-04-18 19:03:00,46.2,42.8,29.57,West,260,16.0,20.0,88,0.00,,,2.52,Wunderground v.1.15,2013-04-19 00:03:00,
2013-04-18 19:07:00,46.1,42.7,29.58,WSW,238,17.0,22.0,88,0.00,,,2.52,Wunderground v.1.15,2013-04-19 00:07:00,
2013-04-18 19:08:00,46.1,42.7,29.58,WSW,257,16.0,22.0,88,0.00,,,2.52,Wunderground v.1.15,2013-04-19 00:08:00,
2013-04-18 19:09:00,46.0,42.6,29.58,WSW,243,17.0,17.0,88,0.00,,,2.52,Wunderground v.1.15,2013-04-19 00:09:00,
2013-04-18 19:13:00,46.0,42.3,29.58,SW,235,16.0,21.0,87,0.00,,,2.52,Wunderground v.1.15,2013-04-19 00:13:00,
2013-04-18 19:14:00,45.9,41.9,29.58,West,260,16.0,21.0,86,0.00,,,2.52,Wunderground v.1.15,2013-04-19 00:14:00,
2013-04-18 19:15:00,45.9,41.9,29.58,WSW,242,16.0,22.0,86,0.00,,,2.52,Wunderground v.1.15,2013-04-19 00:15:00,
2013-04-18 19:17:00,45.9,41.9,29.59,WSW,246,17.0,22.0,86,0.00,,,2.52,Wunderground v.1.15,2013-04-19 00:17:00,
2013-04-18 19:18:00,45.9,41.9,29.59,WSW,243,17.0,22.0,86,0.00,,,2.52,Wunderground v.1.15,2013-04-19 00:18:00,
2013-04-18 19:20:00,45.8,41.9,29.59,WSW,257,17.0,20.0,86,0.00,,,2.52,Wunderground v.1.15,2013-04-19 00:20:00,
2013-04-18 19:24:00,45.7,41.4,29.59,WSW,256,18.0,21.0,85,0.00,,,2.52,Wunderground v.1.15,2013-04-19 00:24:00,
2013-04-18 19:26:00,45.7,41.8,29.60,WSW,239,18.0,21.0,86,0.00,,,2.52,Wunderground v.1.15,2013-04-19 00:26:00,
2013-04-18 19:27:00,45.7,41.4,29.60,WSW,250,17.0,21.0,85,0.00,,,2.52,Wunderground v.1.15,2013-04-19 00:27:00,
2013-04-18 19:29:00,45.7,41.8,29.60,West,262,17.0,17.0,86,0.00,,,2.52,Wunderground v.1.15,2013-04-19 00:29:00,
2013-04-18 19:33:00,45.6,41.7,29.61,WSW,239,16.0,19.0,86,0.00,,,2.52,Wunderground v.1.15,2013-04-19 00:33:00,
2013-04-18 19:34:00,45.6,41.7,29.61,SW,231,15.0,19.0,86,0.00,,,2.52,Wunderground v.1.15,2013-04-19 00:34:00,
2013-04-18 19:38:00,45.6,41.7,29.61,SW,236,15.0,21.0,86,0.00,,,2.52,Wunderground v.1.15,2013-04-19 00:38:00,
2013-04-18 19:39:00,45.5,41.3,29.61,WSW,242,16.0,19.0,85,0.00,,,2.52,Wunderground v.1.15,2013-04-19 00:39:00,
2013-04-18 19:40:00,45.5,41.3,29.61,WSW,256,16.0,19.0,85,0.00,,,2.52,Wunderground v.1.15,2013-04-19 00:40:00,
2013-04-18 19:42:00,45.5,41.3,29.61,WSW,254,16.0,19.0,85,0.00,,,2.52,Wunderground v.1.15,2013-04-19 00:42:00,
2013-04-18 19:43:00,45.5,41.6,29.61,WSW,248,15.0,19.0,86,0.00,,,2.52,Wunderground v.1.15,2013-04-19 00:43:00,
2013-04-18 19:44:00,45.5,41.3,29.61,WSW,248,16.0,21.0,85,0.00,,,2.52,Wunderground v.1.15,2013-04-19 00:44:00,
2013-04-18 19:48:00,45.4,41.2,29.62,WSW,248,16.0,21.0,85,0.00,,,2.52,Wunderground v.1.15,2013-04-19 00:48:00,
2013-04-18 19:50:00,45.4,41.5,29.63,SW,236,16.0,16.0,86,0.00,,,2.52,Wunderground v.1.15,2013-04-19 00:50:00,
2013-04-18 19:51:00,45.4,41.2,29.63,SW,233,15.0,16.0,85,0.00,,,2.52,Wunderground v.1.15,2013-04-19 00:51:00,
2013-04-18 19:55:00,45.3,41.1,29.62,WSW,243,16.0,17.0,85,0.00,,,2.52,Wunderground v.1.15,2013-04-19 00:55:00,
2013-04-18 19:56:00,45.2,41.3,29.62,West,260,15.0,17.0,86,0.00,,,2.52,Wunderground v.1.15,2013-04-19 00:56:00,
2013-04-18 19:57:00,45.2,41.3,29.62,WSW,255,15.0,19.0,86,0.00,,,2.52,Wunderground v.1.15,2013-04-19 00:57:00,
2013-04-18 20:00:00,45.2,40.7,29.62,West,259,15.0,17.0,84,0.00,,,2.52,Wunderground v.1.15,2013-04-19 01:00:00,
2013-04-18 20:01:00,45.1,40.6,29.61,West,259,16.0,19.0,84,0.00,,,2.52,Wunderground v.1.15,2013-04-19 01:01:00,
2013-04-18 20:03:00,45.1,40.6,29.61,West,262,16.0,19.0,84,0.00,,,2.52,Wunderground v.1.15,2013-04-19 01:03:00,
2013-04-18 20:04:00,45.1,40.2,29.62,West,259,16.0,19.0,83,0.00,,,2.52,Wunderground v.1.15,2013-04-19 01:04:00,
2013-04-18 20:08:00,45.0,40.5,29.61,WSW,254,17.0,19.0,84,0.00,,,2.52,Wunderground v.1.15,2013-04-19 01:08:00,
2013-04-18 20:09:00,45.0,40.8,29.62,WSW,245,16.0,16.0,85,0.00,,,2.52,Wunderground v.1.15,2013-04-19 01:09:00,
2013-04-18 20:10:00,44.9,40.7,29.61,West,260,15.0,16.0,85,0.00,,,2.52,Wunderground v.1.15,2013-04-19 01:10:00,
2013-04-18 20:12:00,44.9,39.7,29.61,WSW,252,15.0,19.0,82,0.00,,,2.52,Wunderground v.1.15,2013-04-19 01:12:00,
2013-04-18 20:13:00,44.9,40.0,29.61,WSW,248,16.0,19.0,83,0.00,,,2.52,Wunderground v.1.15,2013-04-19 01:13:00,
2013-04-18 20:16:00,44.9,40.0,29.62,WSW,252,15.0,19.0,83,0.00,,,2.52,Wunderground v.1.15,2013-04-19 01:16:00,
2013-04-18 20:17:00,44.9,40.0,29.62,WSW,243,15.0,19.0,83,0.00,,,2.52,Wunderground v.1.15,2013-04-19 01:17:00,
2013-04-18 20:22:00,44.8,40.0,29.62,WSW,249,18.0,26.0,83,0.00,,,2.52,Wunderground v.1.15,2013-04-19 01:22:00,
2013-04-18 20:23:00,44.8,40.0,29.62,WSW,243,17.0,26.0,83,0.00,,,2.52,Wunderground v.1.15,2013-04-19 01:23:00,
2013-04-18 20:25:00,44.8,40.0,29.63,West,277,18.0,26.0,83,0.00,,,2.52,Wunderground v.1.15,2013-04-19 01:25:00,
2013-04-18 20:27:00,44.7,40.2,29.62,West,259,18.0,26.0,84,0.00,,,2.52,Wunderground v.1.15,2013-04-19 01:27:00,
2013-04-18 20:29:00,44.7,40.2,29.63,WSW,252,17.0,26.0,84,0.00,,,2.52,Wunderground v.1.15,2013-04-19 01:29:00,
2013-04-18 20:30:00,44.7,39.9,29.62,WSW,253,17.0,18.0,83,0.00,,,2.52,Wunderground v.1.15,2013-04-19 01:30:00,
2013-04-18 20:31:00,44.6,40.1,29.62,WSW,255,17.0,18.0,84,0.00,,,2.52,Wunderground v.1.15,2013-04-19 01:31:00,
2013-04-18 20:35:00,44.5,40.0,29.63,WSW,238,18.0,19.0,84,0.00,,,2.52,Wunderground v.1.15,2013-04-19 01:35:00,
2013-04-18 20:36:00,44.5,40.0,29.63,West,271,17.0,19.0,84,0.00,,,2.52,Wunderground v.1.15,2013-04-19 01:36:00,
2013-04-18 20:37:00,44.5,40.0,29.63,West,273,17.0,19.0,84,0.00,,,2.52,Wunderground v.1.15,2013-04-19 01:37:00,
2013-04-18 20:39:00,44.4,40.2,29.63,West,270,17.0,19.0,85,0.00,,,2.52,Wunderground v.1.15,2013-04-19 01:39:00,
2013-04-18 20:41:00,44.3,39.8,29.63,WSW,246,15.0,19.0,84,0.00,,,2.52,Wunderground v.1.15,2013-04-19 01:41:00,
2013-04-18 20:44:00,44.1,39.3,29.63,SW,216,16.0,19.0,83,0.00,,,2.52,Wunderground v.1.15,2013-04-19 01:44:00,
2013-04-18 20:45:00,44.0,39.5,29.63,WSW,250,15.0,19.0,84,0.00,,,2.52,Wunderground v.1.15,2013-04-19 01:45:00,
2013-04-18 20:46:00,43.9,39.4,29.63,WSW,245,15.0,19.0,84,0.00,,,2.52,Wunderground v.1.15,2013-04-19 01:46:00,
2013-04-18 20:48:00,43.7,39.2,29.63,WSW,256,15.0,19.0,84,0.00,,,2.52,Wunderground v.1.15,2013-04-19 01:48:00,
2013-04-18 20:49:00,43.6,39.1,29.63,WSW,245,16.0,19.0,84,0.00,,,2.52,Wunderground v.1.15,2013-04-19 01:49:00,
2013-04-18 20:51:00,43.5,39.0,29.63,WSW,239,17.0,18.0,84,0.00,,,2.52,Wunderground v.1.15,2013-04-19 01:51:00,
2013-04-18 20:52:00,43.4,38.9,29.63,WSW,249,16.0,18.0,84,0.00,,,2.52,Wunderground v.1.15,2013-04-19 01:52:00,
2013-04-18 20:54:00,43.3,39.1,29.63,WSW,249,16.0,18.0,85,0.00,,,2.52,Wunderground v.1.15,2013-04-19 01:54:00,
2013-04-18 20:56:00,43.2,38.7,29.63,WSW,242,16.0,21.0,84,0.00,,,2.52,Wunderground v.1.15,2013-04-19 01:56:00,
2013-04-18 20:59:00,43.2,38.7,29.63,West,269,16.0,21.0,84,0.00,,,2.52,Wunderground v.1.15,2013-04-19 01:59:00,
2013-04-18 21:00:00,43.2,39.0,29.63,WSW,257,15.0,15.0,85,0.00,,,2.52,Wunderground v.1.15,2013-04-19 02:00:00,
2013-04-18 21:01:00,43.2,39.0,29.63,West,263,15.0,20.0,85,0.00,,,2.52,Wunderground v.1.15,2013-04-19 02:01:00,
2013-04-18 21:03:00,43.1,38.3,29.63,WSW,238,15.0,20.0,83,0.00,,,2.52,Wunderground v.1.15,2013-04-19 02:03:00,
2013-04-18 21:06:00,43.1,38.3,29.62,West,259,15.0,20.0,83,0.00,,,2.52,Wunderground v.1.15,2013-04-19 02:06:00,
2013-04-18 21:08:00,43.0,37.9,29.61,West,260,15.0,20.0,82,0.00,,,2.52,Wunderground v.1.15,2013-04-19 02:08:00,
2013-04-18 21:10:00,43.0,37.9,29.61,WSW,251,16.0,16.0,82,0.00,,,2.52,Wunderground v.1.15,2013-04-19 02:10:00,
2013-04-18 21:11:00,42.9,37.8,29.61,West,264,16.0,16.0,82,0.00,,,2.52,Wunderground v.1.15,2013-04-19 02:11:00,
2013-04-18 21:13:00,42.9,37.8,29.61,West,262,16.0,16.0,82,0.00,,,2.52,Wunderground v.1.15,2013-04-19 02:13:00,
2013-04-18 21:16:00,42.8,37.1,29.62,WSW,249,16.0,25.0,80,0.00,,,2.52,Wunderground v.1.15,2013-04-19 02:16:00,
2013-04-18 21:17:00,42.7,37.0,29.61,West,266,17.0,25.0,80,0.00,,,2.52,Wunderground v.1.15,2013-04-19 02:17:00,
2013-04-18 21:18:00,42.7,37.3,29.62,West,262,17.0,25.0,81,0.00,,,2.52,Wunderground v.1.15,2013-04-19 02:18:00,
2013-04-18 21:20:00,42.5,36.8,29.62,West,259,16.0,19.0,80,0.00,,,2.52,Wunderground v.1.15,2013-04-19 02:20:00,
2013-04-18 21:23:00,42.5,36.8,29.62,West,263,16.0,19.0,80,0.00,,,2.52,Wunderground v.1.15,2013-04-19 02:23:00,
2013-04-18 21:25:00,42.4,37.0,29.62,West,264,16.0,22.0,81,0.00,,,2.52,Wunderground v.1.15,2013-04-19 02:25:00,
2013-04-18 21:26:00,42.4,37.0,29.62,West,276,16.0,22.0,81,0.00,,,2.52,Wunderground v.1.15,2013-04-19 02:26:00,
2013-04-18 21:27:00,42.4,37.0,29.62,West,260,16.0,22.0,81,0.00,,,2.52,Wunderground v.1.15,2013-04-19 02:27:00,
2013-04-18 21:31:00,42.3,36.6,29.62,WSW,256,15.0,16.0,80,0.00,,,2.52,Wunderground v.1.15,2013-04-19 02:31:00,
2013-04-18 21:32:00,42.3,36.9,29.62,West,278,16.0,16.0,81,0.00,,,2.52,Wunderground v.1.15,2013-04-19 02:32:00,
2013-04-18 21:33:00,42.3,36.9,29.62,West,264,16.0,19.0,81,0.00,,,2.52,Wunderground v.1.15,2013-04-19 02:33:00,
2013-04-18 21:35:00,42.2,36.5,29.62,WNW,288,15.0,19.0,80,0.00,,,2.52,Wunderground v.1.15,2013-04-19 02:35:00,
2013-04-18 21:36:00,42.2,36.5,29.62,West,277,15.0,19.0,80,0.00,,,2.52,Wunderground v.1.15,2013-04-19 02:36:00,
2013-04-18 21:37:00,42.2,36.8,29.62,West,263,15.0,19.0,81,0.00,,,2.52,Wunderground v.1.15,2013-04-19 02:37:00,
2013-04-18 21:39:00,42.1,36.7,29.62,WNW,287,14.0,19.0,81,0.00,,,2.52,Wunderground v.1.15,2013-04-19 02:39:00,
2013-04-18 21:43:00,41.9,36.5,29.62,West,271,13.0,15.0,81,0.00,,,2.52,Wunderground v.1.15,2013-04-19 02:43:00,
2013-04-18 21:44:00,41.9,36.8,29.63,West,266,12.0,15.0,82,0.00,,,2.52,Wunderground v.1.15,2013-04-19 02:44:00,
2013-04-18 21:46:00,41.7,36.6,29.63,WNW,287,11.0,15.0,82,0.00,,,2.52,Wunderground v.1.15,2013-04-19 02:46:00,
2013-04-18 21:49:00,41.6,36.8,29.63,West,273,11.0,16.0,83,0.00,,,2.52,Wunderground v.1.15,2013-04-19 02:49:00,
2013-04-18 21:51:00,41.5,36.7,29.63,NW,313,11.0,17.0,83,0.00,,,2.52,Wunderground v.1.15,2013-04-19 02:51:00,
2013-04-18 21:53:00,41.3,36.8,29.63,West,262,11.0,17.0,84,0.00,,,2.52,Wunderground v.1.15,2013-04-19 02:53:00,
2013-04-18 21:54:00,41.3,36.8,29.64,WNW,284,11.0,17.0,84,0.00,,,2.52,Wunderground v.1.15,2013-04-19 02:54:00,
2013-04-18 21:56:00,41.2,36.7,29.63,WSW,254,11.0,19.0,84,0.00,,,2.52,Wunderground v.1.15,2013-04-19 02:56:00,
2013-04-18 21:57:00,41.2,36.7,29.63,West,259,11.0,19.0,84,0.00,,,2.52,Wunderground v.1.15,2013-04-19 02:57:00,
2013-04-18 21:59:00,41.1,36.6,29.63,WSW,256,12.0,21.0,84,0.00,,,2.52,Wunderground v.1.15,2013-04-19 02:59:00,
2013-04-18 22:00:00,41.0,36.2,29.64,West,265,12.0,14.0,83,0.00,,,2.52,Wunderground v.1.15,2013-04-19 03:00:00,
2013-04-18 22:01:00,41.0,36.2,29.64,WNW,297,12.0,14.0,83,0.00,,,2.52,Wunderground v.1.15,2013-04-19 03:01:00,
2013-04-18 22:05:00,40.9,36.1,29.64,West,269,13.0,14.0,83,0.00,,,2.52,Wunderground v.1.15,2013-04-19 03:05:00,
2013-04-18 22:06:00,40.9,36.1,29.64,West,262,13.0,14.0,83,0.00,,,2.52,Wunderground v.1.15,2013-04-19 03:06:00,
2013-04-18 22:07:00,40.8,36.0,29.64,WNW,283,14.0,14.0,83,0.00,,,2.52,Wunderground v.1.15,2013-04-19 03:07:00,
2013-04-18 22:08:00,40.8,36.3,29.64,WSW,247,13.0,17.0,84,0.00,,,2.52,Wunderground v.1.15,2013-04-19 03:08:00,
2013-04-18 22:10:00,40.7,35.9,29.64,WSW,255,13.0,16.0,83,0.00,,,2.52,Wunderground v.1.15,2013-04-19 03:10:00,
2013-04-18 22:12:00,40.6,35.8,29.65,West,259,13.0,24.0,83,0.00,,,2.52,Wunderground v.1.15,2013-04-19 03:12:00,
2013-04-18 22:13:00,40.6,35.5,29.65,WSW,253,14.0,24.0,82,0.00,,,2.52,Wunderground v.1.15,2013-04-19 03:13:00,
2013-04-18 22:14:00,40.5,35.1,29.65,West,271,14.0,25.0,81,0.00,,,2.52,Wunderground v.1.15,2013-04-19 03:14:00,
2013-04-18 22:19:00,40.2,35.1,29.65,WSW,249,18.0,27.0,82,0.00,,,2.52,Wunderground v.1.15,2013-04-19 03:19:00,
2013-04-18 22:20:00,40.1,35.4,29.65,WNW,291,18.0,18.0,83,0.00,,,2.52,Wunderground v.1.15,2013-04-19 03:20:00,
2013-04-18 22:21:00,40.1,35.7,29.65,WSW,250,18.0,18.0,84,0.00,,,2.52,Wunderground v.1.15,2013-04-19 03:21:00,
2013-04-18 22:24:00,39.9,36.1,29.65,West,269,15.0,18.0,86,0.00,,,2.52,Wunderground v.1.15,2013-04-19 03:24:00,
2013-04-18 22:25:00,39.9,36.1,29.65,WSW,257,14.0,18.0,86,0.00,,,2.52,Wunderground v.1.15,2013-04-19 03:25:00,
2013-04-18 22:27:00,39.7,36.1,29.65,WSW,255,12.0,18.0,87,0.00,,,2.52,Wunderground v.1.15,2013-04-19 03:27:00,
2013-04-18 22:29:00,39.6,36.3,29.66,WSW,240,10.0,18.0,88,0.00,,,2.52,Wunderground v.1.15,2013-04-19 03:29:00,
2013-04-18 22:32:00,39.5,36.2,29.66,WSW,249,9.0,18.0,88,0.00,,,2.52,Wunderground v.1.15,2013-04-19 03:32:00,
2013-04-18 22:35:00,39.5,36.0,29.66,West,259,9.0,18.0,87,0.00,,,2.52,Wunderground v.1.15,2013-04-19 03:35:00,
2013-04-18 22:36:00,39.5,36.0,29.66,WNW,287,9.0,18.0,87,0.00,,,2.52,Wunderground v.1.15,2013-04-19 03:36:00,
2013-04-18 22:37:00,39.5,36.0,29.66,WSW,255,10.0,18.0,87,0.00,,,2.52,Wunderground v.1.15,2013-04-19 03:37:00,
2013-04-18 22:38:00,39.5,35.7,29.65,West,259,10.0,18.0,86,0.00,,,2.52,Wunderground v.1.15,2013-04-19 03:38:00,
2013-04-18 22:40:00,39.6,35.8,29.65,WSW,252,11.0,12.0,86,0.00,,,2.52,Wunderground v.1.15,2013-04-19 03:40:00,
2013-04-18 22:42:00,39.6,35.5,29.65,WNW,283,12.0,14.0,85,0.00,,,2.52,Wunderground v.1.15,2013-04-19 03:42:00,
2013-04-18 22:44:00,39.7,35.0,29.65,WSW,246,13.0,23.0,83,0.00,,,2.52,Wunderground v.1.15,2013-04-19 03:44:00,
2013-04-18 22:46:00,39.8,34.8,29.65,West,263,15.0,23.0,82,0.00,,,2.52,Wunderground v.1.15,2013-04-19 03:46:00,
2013-04-18 22:49:00,39.8,34.8,29.65,WSW,254,16.0,23.0,82,0.00,,,2.52,Wunderground v.1.15,2013-04-19 03:49:00,
2013-04-18 22:50:00,39.8,34.4,29.65,WSW,250,16.0,18.0,81,0.00,,,2.52,Wunderground v.1.15,2013-04-19 03:50:00,
2013-04-18 22:52:00,39.8,34.8,29.64,West,274,16.0,18.0,82,0.00,,,2.52,Wunderground v.1.15,2013-04-19 03:52:00,
2013-04-18 22:53:00,39.8,34.8,29.64,West,281,16.0,18.0,82,0.00,,,2.52,Wunderground v.1.15,2013-04-19 03:53:00,
2013-04-18 22:55:00,39.8,35.1,29.64,WSW,252,14.0,21.0,83,0.00,,,2.52,Wunderground v.1.15,2013-04-19 03:55:00,
2013-04-18 22:57:00,39.8,34.8,29.64,WSW,254,13.0,21.0,82,0.00,,,2.52,Wunderground v.1.15,2013-04-19 03:57:00,
2013-04-18 23:00:00,39.7,34.7,29.64,WSW,253,13.0,19.0,82,0.00,,,2.52,Wunderground v.1.15,2013-04-19 04:00:00,
2013-04-18 23:01:00,39.7,34.7,29.64,West,278,13.0,19.0,82,0.00,,,2.52,Wunderground v.1.15,2013-04-19 04:01:00,
2013-04-18 23:02:00,39.6,34.6,29.64,WSW,250,13.0,19.0,82,0.00,,,2.52,Wunderground v.1.15,2013-04-19 04:02:00,
2013-04-18 23:03:00,39.7,34.7,29.64,WNW,283,13.0,19.0,82,0.00,,,2.52,Wunderground v.1.15,2013-04-19 04:03:00,
2013-04-18 23:04:00,39.6,34.6,29.64,West,278,13.0,19.0,82,0.00,,,2.52,Wunderground v.1.15,2013-04-19 04:04:00,
2013-04-18 23:08:00,39.5,34.5,29.64,WNW,290,15.0,19.0,82,0.00,,,2.52,Wunderground v.1.15,2013-04-19 04:08:00,
2013-04-18 23:09:00,39.5,34.2,29.64,WSW,246,15.0,20.0,81,0.00,,,2.52,Wunderground v.1.15,2013-04-19 04:09:00,
2013-04-18 23:10:00,39.5,34.5,29.64,West,259,16.0,19.0,82,0.00,,,2.52,Wunderground v.1.15,2013-04-19 04:10:00,
2013-04-18 23:14:00,39.3,34.3,29.63,WSW,250,15.0,19.0,82,0.00,,,2.52,Wunderground v.1.15,2013-04-19 04:14:00,
2013-04-18 23:15:00,39.4,34.7,29.63,WNW,284,14.0,19.0,83,0.00,,,2.52,Wunderground v.1.15,2013-04-19 04:15:00,
2013-04-18 23:16:00,39.3,34.6,29.63,West,260,14.0,19.0,83,0.00,,,2.52,Wunderground v.1.15,2013-04-19 04:16:00,
2013-04-18 23:17:00,39.3,34.9,29.63,WSW,249,14.0,19.0,84,0.00,,,2.52,Wunderground v.1.15,2013-04-19 04:17:00,
2013-04-18 23:18:00,39.3,34.3,29.63,West,263,14.0,19.0,82,0.00,,,2.52,Wunderground v.1.15,2013-04-19 04:18:00,
2013-04-18 23:21:00,39.2,34.2,29.63,West,263,13.0,18.0,82,0.00,,,2.52,Wunderground v.1.15,2013-04-19 04:21:00,
2013-04-18 23:23:00,39.2,34.2,29.63,West,271,13.0,18.0,82,0.00,,,2.52,Wunderground v.1.15,2013-04-19 04:23:00,
2013-04-18 23:24:00,39.2,34.2,29.63,West,266,14.0,20.0,82,0.00,,,2.52,Wunderground v.1.15,2013-04-19 04:24:00,
2013-04-18 23:25:00,39.2,34.2,29.63,WNW,295,14.0,20.0,82,0.00,,,2.52,Wunderground v.1.15,2013-04-19 04:25:00,
2013-04-18 23:28:00,39.2,33.9,29.63,WSW,246,15.0,20.0,81,0.00,,,2.52,Wunderground v.1.15,2013-04-19 04:28:00,
2013-04-18 23:30:00,39.1,34.1,29.63,WSW,255,14.0,14.0,82,0.00,,,2.52,Wunderground v.1.15,2013-04-19 04:30:00,
2013-04-18 23:32:00,39.1,33.8,29.63,WSW,249,15.0,20.0,81,0.00,,,2.52,Wunderground v.1.15,2013-04-19 04:32:00,
2013-04-18 23:34:00,39.1,34.4,29.63,WSW,256,14.0,20.0,83,0.00,,,2.52,Wunderground v.1.15,2013-04-19 04:34:00,
2013-04-18 23:35:00,39.0,33.7,29.63,WSW,255,14.0,22.0,81,0.00,,,2.52,Wunderground v.1.15,2013-04-19 04:35:00,
2013-04-18 23:37:00,39.0,33.7,29.63,WSW,253,14.0,23.0,81,0.00,,,2.52,Wunderground v.1.15,2013-04-19 04:37:00,
2013-04-18 23:38:00,38.9,33.3,29.63,West,265,15.0,23.0,80,0.00,,,2.52,Wunderground v.1.15,2013-04-19 04:38:00,
2013-04-18 23:39:00,38.9,32.9,29.62,WSW,248,15.0,29.0,79,0.00,,,2.52,Wunderground v.1.15,2013-04-19 04:39:00,
2013-04-18 23:40:00,38.8,32.8,29.62,WSW,258,16.0,29.0,79,0.00,,,2.52,Wunderground v.1.15,2013-04-19 04:40:00,
2013-04-18 23:43:00,38.8,33.5,29.63,WSW,243,16.0,29.0,81,0.00,,,2.52,Wunderground v.1.15,2013-04-19 04:43:00,
2013-04-18 23:44:00,38.7,33.1,29.63,West,278,17.0,29.0,80,0.00,,,2.52,Wunderground v.1.15,2013-04-19 04:44:00,
2013-04-18 23:45:00,38.7,33.1,29.62,WNW,301,17.0,29.0,80,0.00,,,2.52,Wunderground v.1.15,2013-04-19 04:45:00,
2013-04-18 23:47:00,38.7,33.1,29.63,WNW,291,16.0,29.0,80,0.00,,,2.52,Wunderground v.1.15,2013-04-19 04:47:00,
2013-04-18 23:52:00,38.5,32.6,29.62,WSW,252,14.0,15.0,79,0.00,,,2.52,Wunderground v.1.15,2013-04-19 04:52:00,
2013-04-18 23:53:00,38.5,32.9,29.62,WNW,287,13.0,15.0,80,0.00,,,2.52,Wunderground v.1.15,2013-04-19 04:53:00,
2013-04-18 23:54:00,38.5,32.9,29.62,West,264,13.0,15.0,80,0.00,,,2.52,Wunderground v.1.15,2013-04-19 04:54:00,
2013-04-18 23:56:00,38.5,32.9,29.62,SW,235,12.0,17.0,80,0.00,,,2.52,Wunderground v.1.15,2013-04-19 04:56:00,
2013-04-18 23:57:00,38.5,32.9,29.61,West,269,11.0,17.0,80,0.00,,,2.52,Wunderground v.1.15,2013-04-19 04:57:00,
2013-04-18 23:58:00,38.4,32.8,29.61,WSW,256,10.0,18.0,80,0.00,,,2.52,Wunderground v.1.15,2013-04-19 04:58:00,